KJ6MC Weather Reports


Display with metric or nautical units.
time (UTC)temp
F
wind
direction
speed
MPH
gust
MPH
rain 1hr
in
rain 24hr
in
rain mn
in
humidity
%
barometer
mb
20260905233005 82 233 5.0 11.0 0.00 0.00 0.00 35 1012.0
20260905232859 82 229 5.0 11.0 0.00 0.00 0.00 35 1012.0
20260905232757 82 243 5.0 11.0 0.00 0.00 0.00 35 1012.0
20260905232657 82 226 5.0 11.0 0.00 0.00 0.00 35 1012.0
20260905232557 82 224 5.0 11.0 0.00 0.00 0.00 35 1012.0
20260905232458 82 239 5.0 11.0 0.00 0.00 0.00 35 1012.0
20260905232351 83 200 5.0 12.0 0.00 0.00 0.00 35 1012.0
20260905232251 83 242 5.0 12.0 0.00 0.00 0.00 35 1012.0
20260905232151 83 231 5.0 12.0 0.00 0.00 0.00 35 1012.0
20260905232052 83 233 5.0 12.0 0.00 0.00 0.00 35 1012.0
20260905231953 83 270 5.0 12.0 0.00 0.00 0.00 35 1012.0
20260905231845 83 194 5.0 12.0 0.00 0.00 0.00 35 1012.0
20260905231747 83 212 5.0 12.0 0.00 0.00 0.00 36 1012.0
20260905231710 83 229 4.0 9.0 0.00 0.00 0.00 34 1012.0
20260905231645 83 226 5.0 12.0 0.00 0.00 0.00 35 1012.0
20260905231601 83 222 4.0 12.0 0.00 0.00 0.00 35 1012.0
20260905231551 83 229 4.0 9.0 0.00 0.00 0.00 34 1012.0
20260905231339 83 238 3.0 9.0 0.00 0.00 0.00 35 1012.0
20260905231240 83 148 3.0 9.0 0.00 0.00 0.00 34 1012.0
20260905231139 83 167 3.0 9.0 0.00 0.00 0.00 35 1012.0
20260905231039 83 218 3.0 9.0 0.00 0.00 0.00 35 1012.0
20260905230940 83 176 2.0 9.0 0.00 0.00 0.00 35 1012.0
20260905230833 83 179 2.0 9.0 0.00 0.00 0.00 37 1012.0
20260905230736 83 233 2.0 11.0 0.00 0.00 0.00 36 1012.1
20260905230633 83 206 2.0 11.0 0.00 0.00 0.00 36 1012.1
20260905230533 83 206 3.0 11.0 0.00 0.00 0.00 36 1012.1
20260905230435 83 234 2.0 11.0 0.00 0.00 0.00 35 1012.0
20260905230327 83 204 2.0 11.0 0.00 0.00 0.00 36 1012.1
20260905230228 83 214 2.0 11.0 0.00 0.00 0.00 35 1012.1
20260905230149 83 205 3.0 11.0 0.00 0.00 0.00 35 1012.1
20260905230127 83 197 2.0 11.0 0.00 0.00 0.00 35 1012.1
20260905230046 83 212 3.0 11.0 0.00 0.00 0.00 35 1012.1
20260905230033 83 205 3.0 11.0 0.00 0.00 0.00 35 1012.1
20260905225828 84 235 3.0 11.0 0.00 0.00 0.00 35 1012.1
20260905225727 84 243 2.0 9.0 0.00 0.00 0.00 35 1012.1
20260905225625 84 275 2.0 9.0 0.00 0.00 0.00 35 1012.0
20260905225524 84 266 3.0 9.0 0.00 0.00 0.00 36 1012.1
20260905225422 83 257 3.0 9.0 0.00 0.00 0.00 36 1012.1
20260905225317 83 238 3.0 9.0 0.00 0.00 0.00 35 1012.1
20260905225215 83 188 3.0 9.0 0.00 0.00 0.00 35 1012.1
20260905225115 83 149 3.0 9.0 0.00 0.00 0.00 35 1012.1
20260905225016 83 131 3.0 9.0 0.00 0.00 0.00 35 1012.1
20260905224916 83 197 2.0 9.0 0.00 0.00 0.00 35 1012.2
20260905224809 83 250 2.0 9.0 0.00 0.00 0.00 36 1012.2
20260905224712 83 210 2.0 9.0 0.00 0.00 0.00 35 1012.2
20260905224610 83 250 2.0 9.0 0.00 0.00 0.00 35 1012.2
20260905224510 83 197 1.0 9.0 0.00 0.00 0.00 35 1012.3
20260905224411 83 239 1.0 9.0 0.00 0.00 0.00 35 1012.4
20260905224307 83 194 1.0 6.0 0.00 0.00 0.00 35 1012.3
20260905224212 84 235 1.0 6.0 0.00 0.00 0.00 35 1012.3
20260905224107 84 224 1.0 6.0 0.00 0.00 0.00 35 1012.4
20260905224005 84 231 1.0 6.0 0.00 0.00 0.00 35 1012.3
20260905223909 84 170 1.0 4.0 0.00 0.00 0.00 36 1012.4
20260905223903 84 214 1.0 4.0 0.00 0.00 0.00 36 1012.4
20260905223800 84 215 1.0 4.0 0.00 0.00 0.00 37 1012.4
20260905223657 84 215 1.0 4.0 0.00 0.00 0.00 36 1012.4
20260905223557 84 215 1.0 4.0 0.00 0.00 0.00 37 1012.4
20260905223457 83 215 1.0 4.0 0.00 0.00 0.00 36 1012.4
20260905223407 83 222 1.0 4.0 0.00 0.00 0.00 36 1012.4
20260905223357 83 222 1.0 4.0 0.00 0.00 0.00 36 1012.4
20260905223258 83 238 1.0 3.0 0.00 0.00 0.00 36 1012.4
20260905223156 83 240 1.0 3.0 0.00 0.00 0.00 37 1012.4
20260905223054 83 214 2.0 4.0 0.00 0.00 0.00 37 1012.4
20260905222954 83 311 2.0 5.0 0.00 0.00 0.00 36 1012.4
20260905222906 83 311 2.0 5.0 0.00 0.00 0.00 37 1012.4
20260905222851 83 359 2.0 5.0 0.00 0.00 0.00 37 1012.4
20260905222750 83 284 2.0 5.0 0.00 0.00 0.00 38 1012.5
20260905222649 83 340 2.0 5.0 0.00 0.00 0.00 37 1012.5
20260905222627 83 243 2.0 8.0 0.00 0.00 0.00 37 1012.5
20260905222549 83 304 2.0 8.0 0.00 0.00 0.00 37 1012.5
20260905222515 83 243 2.0 8.0 0.00 0.00 0.00 37 1012.4
20260905222345 83 243 2.0 8.0 0.00 0.00 0.00 37 1012.5
20260905222242 83 243 2.0 8.0 0.00 0.00 0.00 37 1012.4
20260905222139 83 259 2.0 8.0 0.00 0.00 0.00 36 1012.4
20260905222040 83 231 2.0 8.0 0.00 0.00 0.00 37 1012.4
20260905221939 83 242 2.0 8.0 0.00 0.00 0.00 37 1012.5
20260905221905 83 242 2.0 8.0 0.00 0.00 0.00 37 1012.5
20260905221839 83 231 2.0 8.0 0.00 0.00 0.00 37 1012.5
20260905221736 83 245 2.0 8.0 0.00 0.00 0.00 37 1012.5
20260905221635 82 231 2.0 8.0 0.00 0.00 0.00 37 1012.4
20260905221535 82 205 2.0 6.0 0.00 0.00 0.00 36 1012.5
20260905221435 83 229 2.0 6.0 0.00 0.00 0.00 36 1012.5
20260905221404 83 232 2.0 6.0 0.00 0.00 0.00 35 1012.5
20260905221333 83 232 2.0 7.0 0.00 0.00 0.00 35 1012.5
20260905221233 83 215 2.0 7.0 0.00 0.00 0.00 36 1012.5
20260905221135 83 205 2.0 7.0 0.00 0.00 0.00 36 1012.6
20260905221131 83 236 1.0 7.0 0.00 0.00 0.00 36 1012.5
20260905221034 83 238 1.0 7.0 0.00 0.00 0.00 36 1012.5
20260905221015 83 193 2.0 7.0 0.00 0.00 0.00 36 1012.5
20260905220827 83 226 2.0 7.0 0.00 0.00 0.00 37 1012.6
20260905220722 83 216 2.0 7.0 0.00 0.00 0.00 37 1012.6
20260905220628 83 243 2.0 7.0 0.00 0.00 0.00 36 1012.6
20260905220622 83 215 2.0 7.0 0.00 0.00 0.00 36 1012.5
20260905220524 83 215 2.0 7.0 0.00 0.00 0.00 37 1012.5
20260905220515 83 243 2.0 7.0 0.00 0.00 0.00 36 1012.6
20260905220322 82 304 2.0 7.0 0.00 0.00 0.00 36 1012.6
20260905220217 82 231 2.0 7.0 0.00 0.00 0.00 37 1012.6
20260905220115 82 223 3.0 7.0 0.00 0.00 0.00 37 1012.6
20260905220025 82 238 3.0 7.0 0.00 0.00 0.00 36 1012.7
20260905215915 82 236 2.0 7.0 0.00 0.00 0.00 37 1012.7
20260905215903 82 238 2.0 7.0 0.00 0.00 0.00 37 1012.7
20260905215815 82 224 2.0 7.0 0.00 0.00 0.00 37 1012.8
20260905215710 82 225 2.0 7.0 0.00 0.00 0.00 38 1012.8
20260905215615 83 239 1.0 6.0 0.00 0.00 0.00 37 1012.8
20260905215609 82 293 2.0 7.0 0.00 0.00 0.00 37 1012.8
20260905215519 82 305 2.0 7.0 0.00 0.00 0.00 36 1012.8
20260905215510 82 321 2.0 5.0 0.00 0.00 0.00 36 1012.7
20260905215459 83 316 2.0 5.0 0.00 0.00 0.00 36 1012.7
20260905215309 83 311 2.0 5.0 0.00 0.00 0.00 36 1012.7
20260905215241 83 333 1.0 5.0 0.00 0.00 0.00 36 1012.7
20260905215103 83 249 1.0 5.0 0.00 0.00 0.00 37 1012.7
20260905215019 83 9 1.0 5.0 0.00 0.00 0.00 38 1012.8
20260905215009 83 239 1.0 6.0 0.00 0.00 0.00 37 1012.8
20260905214805 82 224 1.0 6.0 0.00 0.00 0.00 37 1012.8
20260905214705 82 285 2.0 6.0 0.00 0.00 0.00 37 1012.8
20260905214600 82 302 1.0 6.0 0.00 0.00 0.00 36 1012.8
20260905214501 82 162 1.0 6.0 0.00 0.00 0.00 36 1012.8
20260905214405 82 236 1.0 6.0 0.00 0.00 0.00 36 1012.8
20260905214257 82 232 1.0 6.0 0.00 0.00 0.00 37 1012.8
20260905214157 82 222 1.0 6.0 0.00 0.00 0.00 36 1012.9
20260905214055 82 221 1.0 6.0 0.00 0.00 0.00 36 1012.8
20260905213956 82 191 1.0 6.0 0.00 0.00 0.00 35 1012.9
20260905213858 82 236 1.0 5.0 0.00 0.00 0.00 36 1012.9
20260905213853 82 233 1.0 5.0 0.00 0.00 0.00 36 1012.9
20260905213752 83 334 1.0 7.0 0.00 0.00 0.00 35 1012.9
20260905213645 83 338 2.0 7.0 0.00 0.00 0.00 36 1012.9
20260905213545 83 300 2.0 7.0 0.00 0.00 0.00 37 1012.9
20260905213445 83 281 2.0 7.0 0.00 0.00 0.00 36 1012.9
20260905213358 82 270 2.0 8.0 0.00 0.00 0.00 36 1012.9
20260905213345 82 270 2.0 8.0 0.00 0.00 0.00 37 1012.9
20260905213245 82 243 3.0 8.0 0.00 0.00 0.00 37 1012.9
20260905213142 82 243 3.0 8.0 0.00 0.00 0.00 37 1012.9
20260905213059 82 245 3.0 9.0 0.00 0.00 0.00 37 1013.0
20260905212939 82 232 3.0 9.0 0.00 0.00 0.00 39 1013.0
20260905212859 81 228 3.0 9.0 0.00 0.00 0.00 39 1013.0
20260905212846 82 210 2.0 9.0 0.00 0.00 0.00 39 1013.0
20260905212839 81 226 3.0 9.0 0.00 0.00 0.00 39 1013.0
20260905212740 81 201 3.0 9.0 0.00 0.00 0.00 38 1013.0
20260905212732 81 151 3.0 9.0 0.00 0.00 0.00 38 1013.0
20260905212537 82 226 2.0 9.0 0.00 0.00 0.00 38 1013.0
20260905212509 82 228 2.0 9.0 0.00 0.00 0.00 39 1013.0
20260905212335 82 200 2.0 9.0 0.00 0.00 0.00 38 1013.0
20260905212235 82 246 2.0 9.0 0.00 0.00 0.00 39 1013.0
20260905212127 82 219 2.0 9.0 0.00 0.00 0.00 38 1013.1
20260905212027 82 240 2.0 6.0 0.00 0.00 0.00 38 1013.1
20260905211927 82 226 1.0 6.0 0.00 0.00 0.00 37 1013.0
20260905211859 81 233 1.0 5.0 0.00 0.00 0.00 37 1013.1
20260905211825 81 160 1.0 5.0 0.00 0.00 0.00 38 1013.1
20260905211726 81 214 1.0 5.0 0.00 0.00 0.00 38 1013.1
20260905211620 81 355 1.0 5.0 0.00 0.00 0.00 38 1013.1
20260905211519 81 355 1.0 5.0 0.00 0.00 0.00 38 1013.1
20260905211421 81 11 1.0 5.0 0.00 0.00 0.00 38 1013.2
20260905211411 81 11 1.0 5.0 0.00 0.00 0.00 38 1013.2
20260905211320 82 333 1.0 5.0 0.00 0.00 0.00 38 1013.2
20260905211220 82 302 1.0 3.0 0.00 0.00 0.00 39 1013.2
20260905211120 81 284 1.0 3.0 0.00 0.00 0.00 39 1013.2
20260905211113 81 264 1.0 3.0 0.00 0.00 0.00 40 1013.1
20260905211016 81 217 1.0 3.0 0.00 0.00 0.00 39 1013.2
20260905211008 81 284 1.0 3.0 0.00 0.00 0.00 39 1013.2
20260905210814 81 291 1.0 3.0 0.00 0.00 0.00 40 1013.2
20260905210715 81 291 1.0 3.0 0.00 0.00 0.00 39 1013.2
20260905210608 81 316 1.0 3.0 0.00 0.00 0.00 40 1013.1
20260905210507 81 240 1.0 4.0 0.00 0.00 0.00 41 1013.2
20260905210407 81 240 1.0 6.0 0.00 0.00 0.00 41 1013.2
20260905210356 81 240 1.0 6.0 0.00 0.00 0.00 41 1013.2
20260905210308 81 95 1.0 6.0 0.00 0.00 0.00 40 1013.1
20260905210211 81 70 1.0 6.0 0.00 0.00 0.00 41 1013.1
20260905210108 81 70 2.0 6.0 0.00 0.00 0.00 41 1013.2
20260905210005 80 72 2.0 6.0 0.00 0.00 0.00 42 1013.2
20260905205905 80 72 3.0 9.0 0.00 0.00 0.00 42 1013.1
20260905205855 80 72 3.0 9.0 0.00 0.00 0.00 42 1013.1
20260905205804 80 59 3.0 9.0 0.00 0.00 0.00 41 1013.2
20260905205701 80 119 3.0 9.0 0.00 0.00 0.00 41 1013.1
20260905205557 80 86 3.0 9.0 0.00 0.00 0.00 41 1013.2
20260905205456 80 213 3.0 10.0 0.00 0.00 0.00 41 1013.2
20260905205357 79 215 3.0 10.0 0.00 0.00 0.00 42 1013.2
20260905205256 79 234 3.0 10.0 0.00 0.00 0.00 43 1013.3
20260905205155 79 170 3.0 10.0 0.00 0.00 0.00 42 1013.3
20260905205052 79 224 3.0 10.0 0.00 0.00 0.00 42 1013.3
20260905204951 80 242 3.0 10.0 0.00 0.00 0.00 41 1013.3
20260905204857 80 243 2.0 10.0 0.00 0.00 0.00 41 1013.3
20260905204851 80 242 2.0 10.0 0.00 0.00 0.00 41 1013.3
20260905204752 80 253 2.0 10.0 0.00 0.00 0.00 41 1013.3
20260905204649 80 242 2.0 10.0 0.00 0.00 0.00 41 1013.3
20260905204546 80 226 2.0 10.0 0.00 0.00 0.00 42 1013.3
20260905204444 80 226 2.0 5.0 0.00 0.00 0.00 43 1013.3
20260905204353 79 201 2.0 5.0 0.00 0.00 0.00 43 1013.3
20260905204344 79 232 2.0 5.0 0.00 0.00 0.00 43 1013.3
20260905204244 79 337 2.0 5.0 0.00 0.00 0.00 43 1013.2
20260905204143 79 335 2.0 5.0 0.00 0.00 0.00 44 1013.3
20260905204111 79 355 2.0 5.0 0.00 0.00 0.00 43 1013.4
20260905204037 79 356 2.0 5.0 0.00 0.00 0.00 45 1013.3
20260905204001 79 355 2.0 5.0 0.00 0.00 0.00 44 1013.3
20260905203838 79 355 2.0 5.0 0.00 0.00 0.00 43 1013.4
20260905203738 79 356 2.0 5.0 0.00 0.00 0.00 44 1013.4
20260905203637 79 316 2.0 5.0 0.00 0.00 0.00 43 1013.4
20260905203535 79 311 2.0 5.0 0.00 0.00 0.00 42 1013.4
20260905203436 80 347 1.0 4.0 0.00 0.00 0.00 42 1013.4
20260905203350 80 338 1.0 4.0 0.00 0.00 0.00 42 1013.4
20260905203335 80 339 1.0 4.0 0.00 0.00 0.00 42 1013.4
20260905203233 80 242 1.0 4.0 0.00 0.00 0.00 43 1013.4
20260905203131 80 243 1.0 4.0 0.00 0.00 0.00 43 1013.4
20260905203025 80 242 1.0 4.0 0.00 0.00 0.00 42 1013.4
20260905202925 80 231 1.0 4.0 0.00 0.00 0.00 43 1013.4
20260905202851 80 228 1.0 4.0 0.00 0.00 0.00 44 1013.4
20260905202825 80 190 1.0 4.0 0.00 0.00 0.00 44 1013.4
20260905202726 80 321 1.0 5.0 0.00 0.00 0.00 43 1013.4
20260905202626 80 231 1.0 5.0 0.00 0.00 0.00 42 1013.4
20260905202526 80 309 1.0 5.0 0.00 0.00 0.00 42 1013.4
20260905202424 80 316 1.0 5.0 0.00 0.00 0.00 42 1013.5
20260905202348 80 316 1.0 5.0 0.00 0.00 0.00 42 1013.5
20260905202324 80 233 1.0 5.0 0.00 0.00 0.00 42 1013.5
20260905202221 80 231 1.0 5.0 0.00 0.00 0.00 43 1013.5
20260905202119 80 231 1.0 5.0 0.00 0.00 0.00 44 1013.5
20260905202017 80 231 1.0 5.0 0.00 0.00 0.00 44 1013.4
20260905201913 80 231 1.0 5.0 0.00 0.00 0.00 44 1013.4
20260905201849 80 243 1.0 5.0 0.00 0.00 0.00 44 1013.4
20260905201813 80 217 1.0 4.0 0.00 0.00 0.00 44 1013.4
20260905201715 79 314 1.0 3.0 0.00 0.00 0.00 44 1013.4
20260905201613 79 288 1.0 3.0 0.00 0.00 0.00 44 1013.5
20260905201513 79 288 1.0 3.0 0.00 0.00 0.00 45 1013.5
20260905201411 79 288 1.0 3.0 0.00 0.00 0.00 45 1013.4
20260905201348 79 291 1.0 3.0 0.00 0.00 0.00 45 1013.4
20260905201311 79 291 1.0 3.0 0.00 0.00 0.00 46 1013.4
20260905201212 79 11 1.0 3.0 0.00 0.00 0.00 45 1013.5
20260905201109 79 318 1.0 4.0 0.00 0.00 0.00 46 1013.5
20260905201010 79 50 1.0 4.0 0.00 0.00 0.00 46 1013.5
20260905200910 78 307 1.0 4.0 0.00 0.00 0.00 46 1013.5
20260905200849 78 307 1.0 4.0 0.00 0.00 0.00 46 1013.5
20260905200809 78 287 1.0 4.0 0.00 0.00 0.00 48 1013.6
20260905200711 78 232 1.0 4.0 0.00 0.00 0.00 48 1013.6
20260905200609 78 346 1.0 4.0 0.00 0.00 0.00 48 1013.6
20260905200510 77 346 1.0 4.0 0.00 0.00 0.00 49 1013.6
20260905200408 77 314 1.0 4.0 0.00 0.00 0.00 48 1013.6
20260905200349 77 314 1.0 4.0 0.00 0.00 0.00 48 1013.6
20260905200306 77 314 1.0 4.0 0.00 0.00 0.00 47 1013.6
20260905200209 77 314 1.0 4.0 0.00 0.00 0.00 47 1013.6
20260905200106 77 322 1.0 4.0 0.00 0.00 0.00 48 1013.6
20260905200004 78 321 2.0 4.0 0.00 0.00 0.00 47 1013.7
20260905195847 78 321 2.0 8.0 0.00 0.00 0.00 47 1013.6
20260905195804 78 321 2.0 8.0 0.00 0.00 0.00 46 1013.7
20260905195703 78 328 2.0 8.0 0.00 0.00 0.00 47 1013.7
20260905195601 78 26 2.0 8.0 0.00 0.00 0.00 46 1013.7
20260905195501 78 33 2.0 8.0 0.00 0.00 0.00 46 1013.7
20260905195346 78 337 2.0 8.0 0.00 0.00 0.00 48 1013.7
20260905195259 78 333 2.0 8.0 0.00 0.00 0.00 47 1013.7
20260905195158 78 335 2.0 8.0 0.00 0.00 0.00 48 1013.8
20260905195057 78 158 2.0 8.0 0.00 0.00 0.00 47 1013.8
20260905194958 78 166 1.0 8.0 0.00 0.00 0.00 46 1013.8
20260905194857 78 250 1.0 6.0 0.00 0.00 0.00 47 1013.7
20260905194846 78 250 1.0 6.0 0.00 0.00 0.00 46 1013.7
20260905194755 79 236 1.0 4.0 0.00 0.00 0.00 48 1013.7
20260905194654 79 229 1.0 4.0 0.00 0.00 0.00 47 1013.7
20260905194553 79 229 1.0 4.0 0.00 0.00 0.00 48 1013.7
20260905194451 79 228 1.0 4.0 0.00 0.00 0.00 48 1013.8
20260905194350 79 242 1.0 4.0 0.00 0.00 0.00 48 1013.8
20260905194250 78 333 1.0 4.0 0.00 0.00 0.00 48 1013.8
20260905194148 78 333 1.0 4.0 0.00 0.00 0.00 49 1013.7
20260905194047 78 347 2.0 5.0 0.00 0.00 0.00 50 1013.8
20260905193945 78 236 2.0 6.0 0.00 0.00 0.00 50 1013.8
20260905193845 78 151 2.0 6.0 0.00 0.00 0.00 49 1013.8
20260905193739 77 211 3.0 6.0 0.00 0.00 0.00 49 1013.8
20260905193637 77 241 3.0 6.0 0.00 0.00 0.00 50 1013.8
20260905193538 77 59 3.0 7.0 0.00 0.00 0.00 49 1013.8
20260905193437 77 57 3.0 7.0 0.00 0.00 0.00 49 1013.8
20260905193338 77 84 3.0 7.0 0.00 0.00 0.00 49 1013.9
20260905193231 77 215 3.0 7.0 0.00 0.00 0.00 49 1013.9
20260905193131 77 144 2.0 7.0 0.00 0.00 0.00 48 1013.9
20260905193031 77 229 2.0 7.0 0.00 0.00 0.00 48 1013.9
20260905192931 78 162 2.0 7.0 0.00 0.00 0.00 49 1014.0
20260905192832 78 214 2.0 7.0 0.00 0.00 0.00 48 1013.9
20260905192730 78 224 2.0 7.0 0.00 0.00 0.00 49 1014.0
20260905192629 78 142 1.0 6.0 0.00 0.00 0.00 49 1013.9
20260905192528 77 218 1.0 4.0 0.00 0.00 0.00 50 1014.0
20260905192427 77 226 1.0 4.0 0.00 0.00 0.00 50 1014.0
20260905192326 77 226 1.0 4.0 0.00 0.00 0.00 51 1013.9
20260905192226 77 226 1.0 4.0 0.00 0.00 0.00 50 1014.0
20260905192123 77 328 1.0 4.0 0.00 0.00 0.00 48 1014.0
20260905192045 78 326 1.0 6.0 0.00 0.00 0.00 48 1014.0
20260905192024 78 332 1.0 6.0 0.00 0.00 0.00 49 1014.0
20260905191936 78 311 1.0 6.0 0.00 0.00 0.00 49 1014.0
20260905191925 78 326 1.0 6.0 0.00 0.00 0.00 48 1014.0
20260905191716 78 222 1.0 6.0 0.00 0.00 0.00 50 1014.0
20260905191615 78 219 1.0 6.0 0.00 0.00 0.00 50 1014.0
20260905191515 78 219 2.0 6.0 0.00 0.00 0.00 51 1014.0
20260905191416 78 219 2.0 6.0 0.00 0.00 0.00 51 1014.1
20260905191313 77 219 2.0 6.0 0.00 0.00 0.00 50 1014.1
20260905191212 77 219 2.0 6.0 0.00 0.00 0.00 50 1014.1
20260905191111 77 149 2.0 6.0 0.00 0.00 0.00 51 1014.1
20260905191040 76 146 2.0 6.0 0.00 0.00 0.00 51 1014.1
20260905191012 77 172 2.0 6.0 0.00 0.00 0.00 51 1014.2
20260905190927 77 222 2.0 6.0 0.00 0.00 0.00 51 1014.1
20260905190811 76 269 2.0 6.0 0.00 0.00 0.00 51 1014.1
20260905190713 76 224 2.0 6.0 0.00 0.00 0.00 51 1014.1
20260905190609 76 105 2.0 6.0 0.00 0.00 0.00 51 1014.2
20260905190510 76 175 1.0 6.0 0.00 0.00 0.00 51 1014.2
20260905190409 76 198 1.0 6.0 0.00 0.00 0.00 51 1014.2
20260905190315 76 162 1.0 3.0 0.00 0.00 0.00 51 1014.2
20260905190310 76 161 1.0 3.0 0.00 0.00 0.00 51 1014.2
20260905190211 76 122 1.0 3.0 0.00 0.00 0.00 51 1014.2
20260905190107 76 114 1.0 2.0 0.00 0.00 0.00 51 1014.2
20260905190005 76 87 1.0 3.0 0.00 0.00 0.00 52 1014.2
20260905185905 76 125 1.0 5.0 0.00 0.00 0.00 52 1014.2
20260905185812 75 150 1.0 7.0 0.00 0.00 0.00 53 1014.2
20260905185805 75 149 2.0 7.0 0.00 0.00 0.00 53 1014.2
20260905185710 75 149 2.0 9.0 0.00 0.00 0.00 53 1014.3
20260905185605 75 203 2.0 9.0 0.00 0.00 0.00 54 1014.2
20260905185505 75 203 2.0 9.0 0.00 0.00 0.00 54 1014.2
20260905185404 74 203 2.0 9.0 0.00 0.00 0.00 53 1014.3
20260905185313 74 188 2.0 9.0 0.00 0.00 0.00 52 1014.3
20260905185306 74 188 2.0 9.0 0.00 0.00 0.00 52 1014.3
20260905185202 75 194 2.0 9.0 0.00 0.00 0.00 52 1014.3
20260905185100 75 232 2.0 9.0 0.00 0.00 0.00 52 1014.3
20260905184959 75 236 2.0 9.0 0.00 0.00 0.00 51 1014.3
20260905184900 76 226 1.0 9.0 0.00 0.00 0.00 52 1014.3
20260905184811 76 238 1.0 9.0 0.00 0.00 0.00 53 1014.4
20260905184802 76 219 1.0 9.0 0.00 0.00 0.00 53 1014.4
20260905184659 75 217 1.0 4.0 0.00 0.00 0.00 55 1014.3
20260905184557 75 328 1.0 4.0 0.00 0.00 0.00 55 1014.3
20260905184532 75 240 2.0 8.0 0.00 0.00 0.00 55 1014.3
20260905184451 75 328 1.0 7.0 0.00 0.00 0.00 54 1014.3
20260905184352 75 325 2.0 8.0 0.00 0.00 0.00 55 1014.3
20260905184252 75 240 2.0 8.0 0.00 0.00 0.00 55 1014.3
20260905184151 75 240 2.0 8.0 0.00 0.00 0.00 55 1014.3
20260905184051 74 240 2.0 8.0 0.00 0.00 0.00 56 1014.3
20260905183951 74 240 2.0 8.0 0.00 0.00 0.00 56 1014.3
20260905183849 74 240 2.0 8.0 0.00 0.00 0.00 55 1014.3
20260905183809 74 240 2.0 8.0 0.00 0.00 0.00 55 1014.4
20260905183751 74 241 2.0 8.0 0.00 0.00 0.00 56 1014.4
20260905183650 74 240 2.0 8.0 0.00 0.00 0.00 55 1014.4
20260905183550 74 231 2.0 8.0 0.00 0.00 0.00 54 1014.3
20260905183449 75 229 1.0 8.0 0.00 0.00 0.00 54 1014.4
20260905183350 75 243 1.0 6.0 0.00 0.00 0.00 55 1014.3
20260905183308 74 194 1.0 4.0 0.00 0.00 0.00 56 1014.3
20260905183250 74 162 1.0 4.0 0.00 0.00 0.00 56 1014.3
20260905183149 74 135 1.0 4.0 0.00 0.00 0.00 57 1014.3
20260905183047 74 216 1.0 4.0 0.00 0.00 0.00 57 1014.3
20260905182947 73 200 2.0 4.0 0.00 0.00 0.00 57 1014.3
20260905182846 73 242 2.0 5.0 0.00 0.00 0.00 58 1014.3
20260905182808 73 225 2.0 5.0 0.00 0.00 0.00 59 1014.3
20260905182746 73 223 2.0 5.0 0.00 0.00 0.00 58 1014.3
20260905182645 73 222 3.0 7.0 0.00 0.00 0.00 59 1014.3
20260905182546 73 222 3.0 10.0 0.00 0.00 0.00 58 1014.3
20260905182445 73 222 3.0 10.0 0.00 0.00 0.00 58 1014.3
20260905182344 73 224 3.0 10.0 0.00 0.00 0.00 58 1014.3
20260905182308 72 221 3.0 10.0 0.00 0.00 0.00 59 1014.3
20260905182244 72 176 3.0 10.0 0.00 0.00 0.00 59 1014.3
20260905182144 72 233 3.0 10.0 0.00 0.00 0.00 59 1014.3
20260905182043 73 229 3.0 10.0 0.00 0.00 0.00 59 1014.3
20260905182034 73 233 2.0 10.0 0.00 0.00 0.00 58 1014.3
20260905181943 73 223 3.0 10.0 0.00 0.00 0.00 59 1014.4
20260905181919 73 239 2.0 10.0 0.00 0.00 0.00 58 1014.3
20260905181743 73 231 2.0 10.0 0.00 0.00 0.00 58 1014.3
20260905181643 73 229 1.0 10.0 0.00 0.00 0.00 57 1014.3
20260905181543 74 238 1.0 6.0 0.00 0.00 0.00 58 1014.3
20260905181444 73 215 1.0 4.0 0.00 0.00 0.00 60 1014.3
20260905181343 73 143 1.0 4.0 0.00 0.00 0.00 60 1014.3
20260905181308 73 221 1.0 4.0 0.00 0.00 0.00 61 1014.3
20260905181244 73 233 1.0 4.0 0.00 0.00 0.00 61 1014.3
20260905181144 73 233 1.0 4.0 0.00 0.00 0.00 61 1014.3
20260905181043 73 233 1.0 4.0 0.00 0.00 0.00 61 1014.3
20260905180942 73 233 1.0 6.0 0.00 0.00 0.00 62 1014.3
20260905180841 72 233 1.0 6.0 0.00 0.00 0.00 62 1014.3
20260905180808 72 233 1.0 6.0 0.00 0.00 0.00 62 1014.3
20260905180740 72 233 1.0 6.0 0.00 0.00 0.00 61 1014.3
20260905180637 72 233 1.0 6.0 0.00 0.00 0.00 62 1014.3
20260905180538 72 233 1.0 6.0 0.00 0.00 0.00 62 1014.3
20260905180438 72 235 1.0 6.0 0.00 0.00 0.00 61 1014.3
20260905180337 72 229 1.0 6.0 0.00 0.00 0.00 62 1014.3
20260905180309 72 228 1.0 6.0 0.00 0.00 0.00 62 1014.3
20260905180239 72 228 1.0 6.0 0.00 0.00 0.00 61 1014.3
20260905180135 72 222 1.0 6.0 0.00 0.00 0.00 61 1014.3
20260905180034 72 274 1.0 6.0 0.00 0.00 0.00 61 1014.3
20260905175933 72 236 1.0 4.0 0.00 0.00 0.00 62 1014.3
20260905175808 72 218 1.0 4.0 0.00 0.00 0.00 63 1014.3
20260905175732 71 218 1.0 4.0 0.00 0.00 0.00 63 1014.3
20260905175630 71 130 1.0 4.0 0.00 0.00 0.00 63 1014.2
20260905175529 71 232 1.0 4.0 0.00 0.00 0.00 62 1014.3
20260905175429 71 228 1.0 4.0 0.00 0.00 0.00 62 1014.3
20260905175330 71 303 1.0 3.0 0.00 0.00 0.00 62 1014.2
20260905175309 71 304 0.0 3.0 0.00 0.00 0.00 62 1014.3
20260905175231 71 357 0.0 3.0 0.00 0.00 0.00 62 1014.3
20260905175129 72 26 1.0 3.0 0.00 0.00 0.00 62 1014.2
20260905175028 72 26 1.0 3.0 0.00 0.00 0.00 62 1014.3
20260905174928 72 56 1.0 4.0 0.00 0.00 0.00 62 1014.3
20260905174827 71 57 1.0 4.0 0.00 0.00 0.00 63 1014.3
20260905174803 71 70 1.0 4.0 0.00 0.00 0.00 63 1014.3
20260905174726 71 146 1.0 4.0 0.00 0.00 0.00 63 1014.3
20260905174623 71 146 2.0 4.0 0.00 0.00 0.00 63 1014.3
20260905174526 71 235 2.0 5.0 0.00 0.00 0.00 63 1014.3
20260905174517 70 219 2.0 5.0 0.00 0.00 0.00 64 1014.3
20260905174421 70 123 2.0 5.0 0.00 0.00 0.00 64 1014.3
20260905174407 70 141 2.0 5.0 0.00 0.00 0.00 64 1014.3
20260905174220 70 219 2.0 5.0 0.00 0.00 0.00 63 1014.3
20260905174117 70 210 2.0 5.0 0.00 0.00 0.00 63 1014.3
20260905174011 70 226 2.0 5.0 0.00 0.00 0.00 62 1014.3
20260905173911 70 228 2.0 5.0 0.00 0.00 0.00 63 1014.3
20260905173811 70 222 2.0 5.0 0.00 0.00 0.00 62 1014.3
20260905173751 70 222 2.0 5.0 0.00 0.00 0.00 62 1014.3
20260905173713 71 235 1.0 5.0 0.00 0.00 0.00 62 1014.4
20260905173611 71 232 1.0 5.0 0.00 0.00 0.00 63 1014.3
20260905173507 71 144 1.0 5.0 0.00 0.00 0.00 63 1014.3
20260905173407 70 143 2.0 5.0 0.00 0.00 0.00 63 1014.3
20260905173308 70 143 2.0 5.0 0.00 0.00 0.00 64 1014.3
20260905173245 70 144 2.0 5.0 0.00 0.00 0.00 63 1014.3
20260905173208 70 208 2.0 5.0 0.00 0.00 0.00 63 1014.3
20260905173105 70 150 2.0 5.0 0.00 0.00 0.00 64 1014.3
20260905173002 70 210 2.0 5.0 0.00 0.00 0.00 63 1014.2
20260905172859 70 207 1.0 5.0 0.00 0.00 0.00 63 1014.2
20260905172739 70 207 1.0 5.0 0.00 0.00 0.00 65 1014.2
20260905172659 70 204 1.0 5.0 0.00 0.00 0.00 64 1014.2
20260905172559 70 204 1.0 5.0 0.00 0.00 0.00 63 1014.2
20260905172459 70 204 1.0 5.0 0.00 0.00 0.00 63 1014.2
20260905172358 70 248 1.0 5.0 0.00 0.00 0.00 64 1014.2
20260905172257 70 141 1.0 5.0 0.00 0.00 0.00 65 1014.2
20260905172233 70 134 1.0 6.0 0.00 0.00 0.00 65 1014.2
20260905172156 70 184 1.0 6.0 0.00 0.00 0.00 66 1014.2
20260905172053 69 167 1.0 6.0 0.00 0.00 0.00 67 1014.1
20260905171952 69 105 1.0 6.0 0.00 0.00 0.00 67 1014.2
20260905171851 69 108 1.0 6.0 0.00 0.00 0.00 67 1014.2
20260905171751 69 107 1.0 6.0 0.00 0.00 0.00 67 1014.2
20260905171727 69 108 1.0 6.0 0.00 0.00 0.00 67 1014.2
20260905171649 69 112 2.0 6.0 0.00 0.00 0.00 67 1014.2
20260905171548 69 111 2.0 6.0 0.00 0.00 0.00 68 1014.1
20260905171445 69 138 1.0 5.0 0.00 0.00 0.00 67 1014.2
20260905171441 69 111 2.0 6.0 0.00 0.00 0.00 68 1014.2
20260905171342 69 129 2.0 6.0 0.00 0.00 0.00 67 1014.2
20260905171332 69 132 1.0 5.0 0.00 0.00 0.00 67 1014.2
20260905171141 69 152 1.0 5.0 0.00 0.00 0.00 67 1014.2
20260905171041 69 200 1.0 5.0 0.00 0.00 0.00 67 1014.2
20260905170941 69 200 1.0 5.0 0.00 0.00 0.00 67 1014.2
20260905170839 69 200 1.0 5.0 0.00 0.00 0.00 67 1014.2
20260905170737 69 160 1.0 4.0 0.00 0.00 0.00 67 1014.2
20260905170714 69 197 1.0 4.0 0.00 0.00 0.00 67 1014.2
20260905170637 69 205 1.0 4.0 0.00 0.00 0.00 68 1014.2
20260905170535 68 144 1.0 4.0 0.00 0.00 0.00 68 1014.2
20260905170447 68 156 1.0 4.0 0.00 0.00 0.00 69 1014.2
20260905170431 68 143 1.0 4.0 0.00 0.00 0.00 68 1014.2
20260905170332 68 200 1.0 4.0 0.00 0.00 0.00 69 1014.2
20260905170231 68 148 1.0 4.0 0.00 0.00 0.00 69 1014.2
20260905170132 68 190 1.0 4.0 0.00 0.00 0.00 69 1014.2
20260905170029 68 203 1.0 4.0 0.00 0.00 0.00 70 1014.2
20260905165923 68 200 1.0 4.0 0.00 0.00 0.00 70 1014.2
20260905165824 68 183 1.0 4.0 0.00 0.00 0.00 71 1014.2
20260905165724 67 183 1.0 4.0 0.00 0.00 0.00 71 1014.2
20260905165706 67 183 1.0 4.0 0.00 0.00 0.00 70 1014.2
20260905165623 67 183 1.0 4.0 0.00 0.00 0.00 70 1014.2
20260905165523 67 187 1.0 4.0 0.00 0.00 0.00 71 1014.2
20260905165419 67 188 1.0 4.0 0.00 0.00 0.00 70 1014.2
20260905165317 67 205 0.0 4.0 0.00 0.00 0.00 71 1014.2
20260905165218 67 217 0.0 1.0 0.00 0.00 0.00 71 1014.2
20260905165156 67 217 0.0 1.0 0.00 0.00 0.00 72 1014.1
20260905165118 67 217 0.0 1.0 0.00 0.00 0.00 72 1014.1
20260905165017 67 217 0.0 1.0 0.00 0.00 0.00 71 1014.1
20260905164917 67 217 0.0 1.0 0.00 0.00 0.00 71 1014.1
20260905164816 67 217 0.0 1.0 0.00 0.00 0.00 72 1014.1
20260905164716 67 217 0.0 1.0 0.00 0.00 0.00 72 1014.1
20260905164650 67 217 0.0 1.0 0.00 0.00 0.00 72 1014.1
20260905164613 67 217 0.0 1.0 0.00 0.00 0.00 72 1014.1
20260905164512 67 217 1.0 4.0 0.00 0.00 0.00 72 1014.1
20260905164405 67 163 1.0 4.0 0.00 0.00 0.00 73 1014.1
20260905164306 67 164 1.0 4.0 0.00 0.00 0.00 72 1014.1
20260905164208 67 163 1.0 4.0 0.00 0.00 0.00 73 1014.2
20260905164145 67 164 1.0 4.0 0.00 0.00 0.00 72 1014.2
20260905164105 67 165 1.0 4.0 0.00 0.00 0.00 72 1014.2
20260905164009 66 163 1.0 4.0 0.00 0.00 0.00 72 1014.2
20260905163902 66 163 1.0 4.0 0.00 0.00 0.00 73 1014.2
20260905163800 66 163 1.0 4.0 0.00 0.00 0.00 72 1014.2
20260905163659 67 165 1.0 4.0 0.00 0.00 0.00 72 1014.2
20260905163639 67 165 1.0 4.0 0.00 0.00 0.00 71 1014.2
20260905163559 67 194 1.0 4.0 0.00 0.00 0.00 71 1014.2
20260905163458 67 201 1.0 3.0 0.00 0.00 0.00 73 1014.1
20260905163354 67 166 0.0 3.0 0.00 0.00 0.00 73 1014.2
20260905163254 66 148 0.0 3.0 0.00 0.00 0.00 73 1014.2
20260905163153 66 218 0.0 1.0 0.00 0.00 0.00 74 1014.2
20260905163132 66 124 0.0 1.0 0.00 0.00 0.00 75 1014.2
20260905163053 66 111 0.0 2.0 0.00 0.00 0.00 75 1014.2
20260905162954 65 226 0.0 2.0 0.00 0.00 0.00 76 1014.1
20260905162853 65 226 0.0 2.0 0.00 0.00 0.00 76 1014.1
20260905162752 65 226 0.0 2.0 0.00 0.00 0.00 76 1014.1
20260905162652 65 226 1.0 2.0 0.00 0.00 0.00 76 1014.1
20260905162626 65 226 1.0 2.0 0.00 0.00 0.00 77 1014.1
20260905162550 65 226 1.0 3.0 0.00 0.00 0.00 77 1014.1
20260905162447 64 226 1.0 4.0 0.00 0.00 0.00 77 1014.2
20260905162343 64 226 1.0 4.0 0.00 0.00 0.00 77 1014.2
20260905162242 64 226 2.0 5.0 0.00 0.00 0.00 77 1014.2
20260905162120 64 226 2.0 5.0 0.00 0.00 0.00 77 1014.2
20260905162041 64 229 2.0 5.0 0.00 0.00 0.00 78 1014.2
20260905161941 64 205 2.0 5.0 0.00 0.00 0.00 78 1014.2
20260905161842 63 113 2.0 5.0 0.00 0.00 0.00 79 1014.1
20260905161740 63 190 2.0 5.0 0.00 0.00 0.00 78 1014.2
20260905161614 63 233 1.0 5.0 0.00 0.00 0.00 78 1014.2
20260905161537 63 219 1.0 5.0 0.00 0.00 0.00 78 1014.2
20260905161435 63 200 2.0 5.0 0.00 0.00 0.00 78 1014.1
20260905161330 63 219 2.0 5.0 0.00 0.00 0.00 78 1014.1
20260905161230 63 215 2.0 5.0 0.00 0.00 0.00 78 1014.2
20260905161129 63 231 2.0 5.0 0.00 0.00 0.00 79 1014.1
20260905161109 63 230 2.0 5.0 0.00 0.00 0.00 79 1014.1
20260905161029 63 231 2.0 5.0 0.00 0.00 0.00 79 1014.1
20260905160929 62 225 2.0 5.0 0.00 0.00 0.00 80 1014.1
20260905160827 62 225 2.0 5.0 0.00 0.00 0.00 80 1014.2
20260905160823 62 225 2.0 5.0 0.00 0.00 0.00 80 1014.2
20260905160723 62 225 2.0 5.0 0.00 0.00 0.00 80 1014.2
20260905160714 62 225 2.0 5.0 0.00 0.00 0.00 80 1014.2
20260905160523 62 225 2.0 5.0 0.00 0.00 0.00 79 1014.2
20260905160424 62 239 2.0 5.0 0.00 0.00 0.00 79 1014.2
20260905160331 63 236 1.0 4.0 0.00 0.00 0.00 78 1014.3
20260905160319 62 235 1.0 4.0 0.00 0.00 0.00 79 1014.2
20260905160229 62 230 2.0 4.0 0.00 0.00 0.00 79 1014.2
20260905160220 62 236 2.0 4.0 0.00 0.00 0.00 78 1014.3
20260905160019 62 235 1.0 4.0 0.00 0.00 0.00 79 1014.3
20260905155917 62 180 2.0 4.0 0.00 0.00 0.00 80 1014.3
20260905155811 62 161 2.0 4.0 0.00 0.00 0.00 80 1014.3
20260905155712 62 161 2.0 4.0 0.00 0.00 0.00 80 1014.3
20260905155611 62 129 2.0 4.0 0.00 0.00 0.00 80 1014.3
20260905155550 62 129 2.0 4.0 0.00 0.00 0.00 80 1014.3
20260905155511 62 129 2.0 4.0 0.00 0.00 0.00 79 1014.3
20260905155412 62 216 2.0 4.0 0.00 0.00 0.00 79 1014.3
20260905155313 62 211 2.0 4.0 0.00 0.00 0.00 81 1014.4
20260905155309 62 186 2.0 4.0 0.00 0.00 0.00 80 1014.3
20260905155210 62 158 2.0 4.0 0.00 0.00 0.00 81 1014.3
20260905155155 62 207 2.0 4.0 0.00 0.00 0.00 81 1014.4
20260905155007 62 234 2.0 4.0 0.00 0.00 0.00 81 1014.3
20260905154906 62 228 1.0 4.0 0.00 0.00 0.00 81 1014.3
20260905154802 62 212 1.0 4.0 0.00 0.00 0.00 81 1014.3
20260905154709 62 238 1.0 4.0 0.00 0.00 0.00 81 1014.3
20260905154601 61 221 1.0 4.0 0.00 0.00 0.00 81 1014.2
20260905154538 61 224 1.0 3.0 0.00 0.00 0.00 81 1014.2
20260905154503 61 224 1.0 3.0 0.00 0.00 0.00 82 1014.3
20260905154359 61 217 1.0 3.0 0.00 0.00 0.00 81 1014.2
20260905154301 61 229 1.0 3.0 0.00 0.00 0.00 81 1014.2
20260905154251 61 225 1.0 3.0 0.00 0.00 0.00 81 1014.3
20260905154157 61 229 1.0 3.0 0.00 0.00 0.00 80 1014.3
20260905154142 61 226 1.0 3.0 0.00 0.00 0.00 81 1014.3
20260905153955 61 167 1.0 3.0 0.00 0.00 0.00 82 1014.3
20260905153853 61 131 1.0 3.0 0.00 0.00 0.00 82 1014.3
20260905153751 61 139 1.0 3.0 0.00 0.00 0.00 81 1014.3
20260905153647 61 213 1.0 3.0 0.00 0.00 0.00 82 1014.2
20260905153532 60 146 1.0 3.0 0.00 0.00 0.00 82 1014.2
20260905153447 60 146 1.0 3.0 0.00 0.00 0.00 82 1014.3
20260905153347 60 164 1.0 3.0 0.00 0.00 0.00 83 1014.3
20260905153248 60 148 1.0 3.0 0.00 0.00 0.00 83 1014.3
20260905153145 60 148 1.0 3.0 0.00 0.00 0.00 82 1014.3
20260905153031 60 148 1.0 3.0 0.00 0.00 0.00 82 1014.3
20260905152943 60 148 1.0 3.0 0.00 0.00 0.00 82 1014.3
20260905152841 60 186 1.0 2.0 0.00 0.00 0.00 82 1014.3
20260905152738 60 150 1.0 2.0 0.00 0.00 0.00 82 1014.3
20260905152635 59 217 1.0 2.0 0.00 0.00 0.00 82 1014.3
20260905152529 59 158 1.0 2.0 0.00 0.00 0.00 83 1014.3
20260905152435 59 115 1.0 2.0 0.00 0.00 0.00 83 1014.2
20260905152335 59 117 1.0 2.0 0.00 0.00 0.00 82 1014.3
20260905152237 59 122 0.0 2.0 0.00 0.00 0.00 82 1014.2
20260905152134 59 218 0.0 2.0 0.00 0.00 0.00 82 1014.2
20260905152033 59 172 0.0 2.0 0.00 0.00 0.00 83 1014.2
20260905151829 59 129 0.0 2.0 0.00 0.00 0.00 83 1014.3
20260905151728 59 129 0.0 2.0 0.00 0.00 0.00 83 1014.3
20260905151627 59 120 0.0 2.0 0.00 0.00 0.00 83 1014.3
20260905151527 59 233 0.0 2.0 0.00 0.00 0.00 83 1014.2
20260905151425 59 233 0.0 2.0 0.00 0.00 0.00 83 1014.2
20260905151323 59 233 0.0 1.0 0.00 0.00 0.00 83 1014.2
20260905151224 59 233 0.0 1.0 0.00 0.00 0.00 83 1014.2
20260905151121 59 233 0.0 1.0 0.00 0.00 0.00 82 1014.2
20260905151029 59 233 0.0 1.0 0.00 0.00 0.00 82 1014.2
20260905151022 59 233 0.0 1.0 0.00 0.00 0.00 83 1014.2
20260905150919 59 134 0.0 1.0 0.00 0.00 0.00 83 1014.1
20260905150818 59 134 0.0 1.0 0.00 0.00 0.00 83 1014.1
20260905150714 59 134 0.0 1.0 0.00 0.00 0.00 83 1014.1
20260905150612 58 134 1.0 2.0 0.00 0.00 0.00 83 1014.1
20260905150511 58 134 1.0 2.0 0.00 0.00 0.00 83 1014.1
20260905150412 58 134 1.0 2.0 0.00 0.00 0.00 83 1014.1
20260905150311 58 134 0.0 2.0 0.00 0.00 0.00 83 1014.1
20260905150208 58 134 1.0 2.0 0.00 0.00 0.00 84 1014.1
20260905150108 58 103 1.0 2.0 0.00 0.00 0.00 83 1014.1
20260905150007 58 103 1.0 2.0 0.00 0.00 0.00 84 1014.1
20260905145908 58 103 1.0 2.0 0.00 0.00 0.00 84 1014.1
20260905145805 58 103 1.0 2.0 0.00 0.00 0.00 84 1014.1
20260905145705 58 103 1.0 2.0 0.00 0.00 0.00 84 1014.1
20260905145559 58 103 1.0 2.0 0.00 0.00 0.00 84 1014.1
20260905145526 57 105 1.0 2.0 0.00 0.00 0.00 85 1014.1
20260905145500 57 114 0.0 1.0 0.00 0.00 0.00 85 1014.1
20260905145359 57 115 0.0 1.0 0.00 0.00 0.00 85 1014.1
20260905145259 57 116 1.0 2.0 0.00 0.00 0.00 85 1014.1
20260905145203 57 116 1.0 2.0 0.00 0.00 0.00 85 1014.1
20260905145057 57 116 1.0 2.0 0.00 0.00 0.00 85 1014.1
20260905145027 57 113 1.0 3.0 0.00 0.00 0.00 86 1014.1
20260905144957 56 113 1.0 3.0 0.00 0.00 0.00 86 1014.1
20260905144855 56 113 1.0 3.0 0.00 0.00 0.00 86 1014.1
20260905144755 56 113 1.0 3.0 0.00 0.00 0.00 86 1014.1
20260905144654 56 113 1.0 3.0 0.00 0.00 0.00 87 1014.1
20260905144552 56 113 2.0 3.0 0.00 0.00 0.00 87 1014.1
20260905144525 56 113 2.0 3.0 0.00 0.00 0.00 86 1014.1
20260905144452 56 113 2.0 3.0 0.00 0.00 0.00 86 1014.2
20260905144349 56 113 2.0 3.0 0.00 0.00 0.00 86 1014.2
20260905144247 55 113 2.0 3.0 0.00 0.00 0.00 86 1014.2
20260905144143 55 107 1.0 3.0 0.00 0.00 0.00 86 1014.2
20260905144042 55 107 1.0 3.0 0.00 0.00 0.00 86 1014.2
20260905144025 55 97 1.0 3.0 0.00 0.00 0.00 86 1014.2
20260905143941 55 113 1.0 3.0 0.00 0.00 0.00 87 1014.2
20260905143841 55 103 1.0 3.0 0.00 0.00 0.00 87 1014.1
20260905143742 55 102 1.0 2.0 0.00 0.00 0.00 87 1014.1
20260905143640 55 114 1.0 2.0 0.00 0.00 0.00 88 1014.1
20260905143539 55 110 0.0 2.0 0.00 0.00 0.00 88 1014.1
20260905143524 55 110 0.0 2.0 0.00 0.00 0.00 89 1014.1
20260905143437 55 111 0.0 2.0 0.00 0.00 0.00 89 1014.1
20260905143337 55 125 0.0 1.0 0.00 0.00 0.00 89 1014.1
20260905143236 54 103 0.0 1.0 0.00 0.00 0.00 89 1014.1
20260905143136 54 103 0.0 1.0 0.00 0.00 0.00 89 1014.1
20260905143025 54 103 0.0 1.0 0.00 0.00 0.00 90 1014.1
20260905142934 54 103 0.0 1.0 0.00 0.00 0.00 90 1014.1
20260905142831 54 103 0.0 1.0 0.00 0.00 0.00 91 1014.1
20260905142752 53 103 0.0 1.0 0.00 0.00 0.00 91 1014.0
20260905142730 54 103 0.0 1.0 0.00 0.00 0.00 91 1014.0
20260905142639 53 103 0.0 1.0 0.00 0.00 0.00 91 1014.0
20260905142523 53 103 0.0 1.0 0.00 0.00 0.00 91 1014.0
20260905142423 53 103 0.0 1.0 0.00 0.00 0.00 91 1014.0
20260905142324 53 103 0.0 1.0 0.00 0.00 0.00 90 1014.1
20260905142224 53 103 0.0 2.0 0.00 0.00 0.00 90 1014.1
20260905142124 53 103 1.0 2.0 0.00 0.00 0.00 90 1014.1
20260905142021 53 103 1.0 2.0 0.00 0.00 0.00 91 1014.0
20260905141921 53 103 1.0 2.0 0.00 0.00 0.00 91 1014.1
20260905141819 53 103 1.0 2.0 0.00 0.00 0.00 91 1014.0
20260905141718 53 103 1.0 2.0 0.00 0.00 0.00 91 1014.0
20260905141612 53 103 1.0 2.0 0.00 0.00 0.00 91 1014.0
20260905141520 53 103 1.0 2.0 0.00 0.00 0.00 91 1014.0
20260905141511 53 103 1.0 2.0 0.00 0.00 0.00 91 1013.9
20260905141412 53 103 1.0 2.0 0.00 0.00 0.00 91 1013.9
20260905141311 53 103 0.0 2.0 0.00 0.00 0.00 91 1013.9
20260905141212 53 103 0.0 2.0 0.00 0.00 0.00 91 1013.9
20260905141108 53 103 0.0 2.0 0.00 0.00 0.00 91 1013.9
20260905141005 53 103 0.0 1.0 0.00 0.00 0.00 91 1013.9
20260905140905 53 103 0.0 1.0 0.00 0.00 0.00 91 1013.9
20260905140803 53 103 0.0 1.0 0.00 0.00 0.00 91 1013.8
20260905140706 53 103 0.0 1.0 0.00 0.00 0.00 91 1013.9
20260905140603 53 103 0.0 1.0 0.00 0.00 0.00 91 1013.9
20260905140518 53 103 0.0 1.0 0.00 0.00 0.00 91 1013.9
20260905140502 53 103 0.0 1.0 0.00 0.00 0.00 91 1013.8
20260905140401 53 103 0.0 1.0 0.00 0.00 0.00 91 1013.8
20260905140300 53 103 0.0 1.0 0.00 0.00 0.00 91 1013.8
20260905140159 53 103 0.0 1.0 0.00 0.00 0.00 91 1013.8
20260905140056 53 103 0.0 1.0 0.00 0.00 0.00 91 1013.9
20260905140012 53 103 0.0 1.0 0.00 0.00 0.00 91 1013.8
20260905135955 53 103 0.0 1.0 0.00 0.00 0.00 91 1013.8
20260905135855 53 103 0.0 1.0 0.00 0.00 0.00 91 1013.9
20260905135755 53 103 0.0 1.0 0.00 0.00 0.00 91 1013.8
20260905135651 53 103 0.0 1.0 0.00 0.00 0.00 91 1013.9
20260905135552 53 103 0.0 1.0 0.00 0.00 0.00 91 1013.9
20260905135506 53 103 0.0 1.0 0.00 0.00 0.00 91 1013.9
20260905135449 53 103 0.0 2.0 0.00 0.00 0.00 91 1013.9
20260905135349 53 103 0.0 2.0 0.00 0.00 0.00 91 1013.8
20260905135248 53 103 0.0 2.0 0.00 0.00 0.00 91 1013.9
20260905135145 53 103 1.0 2.0 0.00 0.00 0.00 91 1013.8
20260905135045 53 103 1.0 2.0 0.00 0.00 0.00 91 1013.8
20260905134943 53 103 1.0 2.0 0.00 0.00 0.00 91 1013.8
20260905134843 53 103 1.0 2.0 0.00 0.00 0.00 91 1013.8
20260905134742 53 103 1.0 3.0 0.00 0.00 0.00 91 1013.8
20260905134640 53 103 1.0 3.0 0.00 0.00 0.00 91 1013.8
20260905134537 53 103 1.0 3.0 0.00 0.00 0.00 91 1013.8
20260905134454 53 115 1.0 3.0 0.00 0.00 0.00 91 1013.8
20260905134438 53 116 1.0 3.0 0.00 0.00 0.00 91 1013.8
20260905134335 53 119 1.0 3.0 0.00 0.00 0.00 91 1013.8
20260905134235 53 110 1.0 3.0 0.00 0.00 0.00 91 1013.8
20260905134133 53 107 1.0 3.0 0.00 0.00 0.00 91 1013.8
20260905134028 53 108 1.0 3.0 0.00 0.00 0.00 91 1013.8
20260905133952 53 102 1.0 3.0 0.00 0.00 0.00 91 1013.8
20260905133927 53 110 1.0 3.0 0.00 0.00 0.00 91 1013.8
20260905133828 53 108 1.0 3.0 0.00 0.00 0.00 91 1013.7
20260905133728 53 101 1.0 2.0 0.00 0.00 0.00 91 1013.7
20260905133658 52 115 1.0 2.0 0.00 0.00 0.00 91 1013.7
20260905133627 53 115 1.0 2.0 0.00 0.00 0.00 91 1013.7
20260905133552 52 115 1.0 2.0 0.00 0.00 0.00 91 1013.7
20260905133425 52 116 1.0 2.0 0.00 0.00 0.00 91 1013.7
20260905133325 52 116 1.0 2.0 0.00 0.00 0.00 91 1013.7
20260905133225 52 116 0.0 2.0 0.00 0.00 0.00 91 1013.7
20260905133157 52 110 0.0 2.0 0.00 0.00 0.00 92 1013.7
20260905133122 52 115 0.0 2.0 0.00 0.00 0.00 92 1013.7
20260905133049 52 104 0.0 2.0 0.00 0.00 0.00 92 1013.7
20260905132915 52 110 0.0 2.0 0.00 0.00 0.00 92 1013.7
20260905132815 52 110 0.0 2.0 0.00 0.00 0.00 92 1013.7
20260905132717 52 110 0.0 1.0 0.00 0.00 0.00 92 1013.7
20260905132615 52 110 0.0 1.0 0.00 0.00 0.00 92 1013.7
20260905132509 52 110 0.0 1.0 0.00 0.00 0.00 91 1013.7
20260905132430 52 110 0.0 1.0 0.00 0.00 0.00 91 1013.7
20260905132410 52 110 0.0 0.0 0.00 0.00 0.00 91 1013.7
20260905132309 52 110 0.0 0.0 0.00 0.00 0.00 91 1013.7
20260905132210 52 110 0.0 0.0 0.00 0.00 0.00 91 1013.6
20260905132110 52 110 0.0 0.0 0.00 0.00 0.00 91 1013.6
20260905132009 52 110 0.0 0.0 0.00 0.00 0.00 91 1013.7
20260905131908 52 110 0.0 1.0 0.00 0.00 0.00 91 1013.7
20260905131808 53 110 0.0 1.0 0.00 0.00 0.00 91 1013.6
20260905131706 53 110 0.0 1.0 0.00 0.00 0.00 91 1013.6
20260905131603 53 110 0.0 1.0 0.00 0.00 0.00 91 1013.6
20260905131501 53 110 0.0 1.0 0.00 0.00 0.00 91 1013.7
20260905131431 53 110 0.0 1.0 0.00 0.00 0.00 91 1013.7
20260905131402 53 110 0.0 1.0 0.00 0.00 0.00 91 1013.6
20260905131301 53 110 0.0 1.0 0.00 0.00 0.00 91 1013.6
20260905131204 53 110 0.0 1.0 0.00 0.00 0.00 91 1013.6
20260905131131 53 110 0.0 1.0 0.00 0.00 0.00 91 1013.6
20260905131057 53 110 0.0 1.0 0.00 0.00 0.00 91 1013.6
20260905131035 53 110 0.0 1.0 0.00 0.00 0.00 91 1013.6
20260905130855 53 110 0.0 1.0 0.00 0.00 0.00 91 1013.6
20260905130756 53 110 0.0 1.0 0.00 0.00 0.00 91 1013.7
20260905130654 53 110 0.0 2.0 0.00 0.00 0.00 91 1013.6
20260905130625 53 110 1.0 2.0 0.00 0.00 0.00 91 1013.6
20260905130551 53 110 0.0 2.0 0.00 0.00 0.00 91 1013.6
20260905130517 53 110 1.0 2.0 0.00 0.00 0.00 91 1013.6
20260905130349 53 110 1.0 2.0 0.00 0.00 0.00 91 1013.6
20260905130252 53 110 1.0 2.0 0.00 0.00 0.00 91 1013.6
20260905130148 53 110 1.0 2.0 0.00 0.00 0.00 91 1013.5
20260905130045 53 110 1.0 2.0 0.00 0.00 0.00 91 1013.5
20260905125943 53 110 1.0 2.0 0.00 0.00 0.00 92 1013.6
20260905125843 53 110 1.0 2.0 0.00 0.00 0.00 92 1013.6
20260905125744 53 110 1.0 2.0 0.00 0.00 0.00 92 1013.6
20260905125642 53 110 1.0 2.0 0.00 0.00 0.00 92 1013.6
20260905125539 53 110 0.0 2.0 0.00 0.00 0.00 92 1013.6
20260905125435 53 110 0.0 2.0 0.00 0.00 0.00 92 1013.6
20260905125333 53 110 0.0 2.0 0.00 0.00 0.00 92 1013.6
20260905125233 53 110 0.0 1.0 0.00 0.00 0.00 92 1013.6
20260905125133 53 110 0.0 1.0 0.00 0.00 0.00 92 1013.6
20260905125119 53 110 0.0 1.0 0.00 0.00 0.00 92 1013.5
20260905125033 53 110 0.0 1.0 0.00 0.00 0.00 92 1013.5
20260905124959 53 110 0.0 1.0 0.00 0.00 0.00 92 1013.5
20260905124831 53 110 0.0 1.0 0.00 0.00 0.00 92 1013.5
20260905124732 53 110 0.0 0.0 0.00 0.00 0.00 92 1013.5
20260905124629 53 110 0.0 0.0 0.00 0.00 0.00 91 1013.5
20260905124527 53 110 0.0 1.0 0.00 0.00 0.00 92 1013.5
20260905124426 53 110 0.0 1.0 0.00 0.00 0.00 92 1013.5
20260905124325 53 110 0.0 1.0 0.00 0.00 0.00 92 1013.5
20260905124227 53 110 0.0 1.0 0.00 0.00 0.00 91 1013.5
20260905124123 53 110 0.0 1.0 0.00 0.00 0.00 91 1013.5
20260905124021 53 110 0.0 1.0 0.00 0.00 0.00 91 1013.5
20260905123915 53 110 0.0 1.0 0.00 0.00 0.00 92 1013.5
20260905123815 53 110 0.0 1.0 0.00 0.00 0.00 92 1013.6
20260905123717 53 110 0.0 1.0 0.00 0.00 0.00 92 1013.6
20260905123615 53 110 0.0 1.0 0.00 0.00 0.00 92 1013.6
20260905123515 53 110 0.0 1.0 0.00 0.00 0.00 92 1013.6
20260905123411 53 110 0.0 0.0 0.00 0.00 0.00 92 1013.6
20260905123309 53 110 0.0 1.0 0.00 0.00 0.00 92 1013.6
20260905123210 53 110 0.0 1.0 0.00 0.00 0.00 92 1013.6
20260905123109 53 110 0.0 1.0 0.00 0.00 0.00 92 1013.6
20260905123010 53 110 0.0 1.0 0.00 0.00 0.00 91 1013.6
20260905122907 53 110 0.0 1.0 0.00 0.00 0.00 91 1013.6
20260905122807 53 110 0.0 1.0 0.00 0.00 0.00 91 1013.6
20260905122709 53 110 0.0 1.0 0.00 0.00 0.00 91 1013.6
20260905122606 53 110 0.0 1.0 0.00 0.00 0.00 91 1013.6
20260905122504 53 110 0.0 1.0 0.00 0.00 0.00 91 1013.6
20260905122401 53 110 0.0 1.0 0.00 0.00 0.00 91 1013.6
20260905122318 53 110 0.0 1.0 0.00 0.00 0.00 91 1013.6
20260905122302 53 110 0.0 1.0 0.00 0.00 0.00 91 1013.6
20260905122203 53 110 0.0 1.0 0.00 0.00 0.00 91 1013.6
20260905122059 53 110 0.0 1.0 0.00 0.00 0.00 91 1013.6
20260905121957 53 110 0.0 1.0 0.00 0.00 0.00 91 1013.6
20260905121858 53 110 0.0 1.0 0.00 0.00 0.00 91 1013.6
20260905121812 53 110 0.0 1.0 0.00 0.00 0.00 92 1013.6
20260905121756 53 110 0.0 1.0 0.00 0.00 0.00 92 1013.6
20260905121655 53 110 0.0 1.0 0.00 0.00 0.00 92 1013.6
20260905121552 53 110 0.0 1.0 0.00 0.00 0.00 92 1013.5
20260905121451 53 110 0.0 1.0 0.00 0.00 0.00 92 1013.6
20260905121349 53 110 0.0 1.0 0.00 0.00 0.00 92 1013.6
20260905121306 53 110 0.0 1.0 0.00 0.00 0.00 92 1013.6
20260905121251 53 110 0.0 1.0 0.00 0.00 0.00 92 1013.6
20260905121149 53 110 0.0 1.0 0.00 0.00 0.00 92 1013.6
20260905121047 53 110 0.0 1.0 0.00 0.00 0.00 91 1013.6
20260905120949 53 110 0.0 1.0 0.00 0.00 0.00 91 1013.6
20260905120840 53 110 0.0 0.0 0.00 0.00 0.00 91 1013.6
20260905120805 53 110 0.0 0.0 0.00 0.00 0.00 91 1013.6
20260905120740 53 110 0.0 0.0 0.00 0.00 0.00 91 1013.6
20260905120639 53 110 0.0 0.0 0.00 0.00 0.00 91 1013.6
20260905120540 53 110 0.0 1.0 0.00 0.00 0.00 91 1013.6
20260905120439 53 110 0.0 1.0 0.00 0.00 0.00 91 1013.6
20260905120340 53 110 0.0 1.0 0.00 0.00 0.00 91 1013.6
20260905120305 53 110 0.0 1.0 0.00 0.00 0.00 91 1013.6
20260905120238 53 110 0.0 1.0 0.00 0.00 0.00 91 1013.6
20260905120138 53 110 0.0 1.0 0.00 0.00 0.00 91 1013.6
20260905120036 53 110 0.0 1.0 0.00 0.00 0.00 91 1013.6
20260905115933 53 110 0.0 1.0 0.00 0.00 0.00 91 1013.6
20260905115803 53 110 0.0 1.0 0.00 0.00 0.00 91 1013.6
20260905115732 53 110 0.0 1.0 0.00 0.00 0.00 91 1013.6
20260905115632 53 110 0.0 1.0 0.00 0.00 0.00 91 1013.6
20260905115530 53 110 0.0 0.0 0.00 0.00 0.00 91 1013.6
20260905115427 53 110 0.0 0.0 0.00 0.00 0.00 91 1013.6
20260905115327 53 110 0.0 0.0 0.00 0.00 0.00 91 1013.6
20260905115300 53 110 0.0 0.0 0.00 0.00 0.00 91 1013.6
20260905115226 53 110 0.0 0.0 0.00 0.00 0.00 91 1013.6
20260905115125 53 110 0.0 1.0 0.00 0.00 0.00 91 1013.6
20260905115024 53 110 0.0 1.0 0.00 0.00 0.00 91 1013.6
20260905114921 53 110 0.0 1.0 0.00 0.00 0.00 91 1013.5
20260905114822 53 110 0.0 1.0 0.00 0.00 0.00 91 1013.6
20260905114800 53 110 0.0 1.0 0.00 0.00 0.00 91 1013.6
20260905114720 53 110 0.0 1.0 0.00 0.00 0.00 91 1013.6
20260905114618 53 110 0.0 1.0 0.00 0.00 0.00 91 1013.6
20260905114517 53 110 0.0 1.0 0.00 0.00 0.00 91 1013.5
20260905114416 53 110 0.0 1.0 0.00 0.00 0.00 91 1013.5
20260905114314 53 110 0.0 1.0 0.00 0.00 0.00 91 1013.5
20260905114300 53 110 0.0 1.0 0.00 0.00 0.00 91 1013.5
20260905114214 53 110 0.0 1.0 0.00 0.00 0.00 91 1013.5
20260905114113 53 110 0.0 1.0 0.00 0.00 0.00 91 1013.5
20260905114012 53 110 0.0 1.0 0.00 0.00 0.00 91 1013.5
20260905113909 53 110 0.0 1.0 0.00 0.00 0.00 91 1013.5
20260905113811 53 110 0.0 1.0 0.00 0.00 0.00 91 1013.5
20260905113801 53 110 0.0 1.0 0.00 0.00 0.00 91 1013.5
20260905113708 53 110 0.0 1.0 0.00 0.00 0.00 91 1013.5
20260905113607 53 110 0.0 1.0 0.00 0.00 0.00 91 1013.5
20260905113505 53 110 0.0 1.0 0.00 0.00 0.00 91 1013.5
20260905113403 53 110 0.0 1.0 0.00 0.00 0.00 91 1013.5
20260905113259 53 110 0.0 1.0 0.00 0.00 0.00 91 1013.5
20260905113202 54 110 0.0 1.0 0.00 0.00 0.00 91 1013.4
20260905113058 54 110 0.0 1.0 0.00 0.00 0.00 91 1013.5
20260905112957 54 110 0.0 1.0 0.00 0.00 0.00 91 1013.5
20260905112857 54 110 0.0 1.0 0.00 0.00 0.00 91 1013.5
20260905112756 54 110 0.0 1.0 0.00 0.00 0.00 91 1013.5
20260905112657 54 110 0.0 1.0 0.00 0.00 0.00 91 1013.5
20260905112555 54 110 0.0 1.0 0.00 0.00 0.00 91 1013.5
20260905112453 54 110 0.0 1.0 0.00 0.00 0.00 91 1013.6
20260905112352 54 110 0.0 1.0 0.00 0.00 0.00 91 1013.6
20260905112252 54 110 0.0 1.0 0.00 0.00 0.00 90 1013.6
20260905112150 54 110 0.0 1.0 0.00 0.00 0.00 90 1013.6
20260905112049 54 110 0.0 0.0 0.00 0.00 0.00 90 1013.6
20260905111948 54 110 0.0 0.0 0.00 0.00 0.00 90 1013.6
20260905111845 54 110 0.0 1.0 0.00 0.00 0.00 90 1013.6
20260905111747 54 110 0.0 1.0 0.00 0.00 0.00 90 1013.6
20260905111643 54 110 0.0 1.0 0.00 0.00 0.00 90 1013.7
20260905111544 54 110 0.0 1.0 0.00 0.00 0.00 90 1013.6
20260905111442 54 110 0.0 1.0 0.00 0.00 0.00 90 1013.7
20260905111339 54 110 0.0 1.0 0.00 0.00 0.00 90 1013.7
20260905111236 54 110 0.0 1.0 0.00 0.00 0.00 90 1013.7
20260905111133 54 110 0.0 1.0 0.00 0.00 0.00 90 1013.7
20260905111034 54 110 0.0 1.0 0.00 0.00 0.00 90 1013.7
20260905110933 54 110 0.0 1.0 0.00 0.00 0.00 90 1013.7
20260905110833 54 110 0.0 1.0 0.00 0.00 0.00 90 1013.8
20260905110733 54 110 0.0 1.0 0.00 0.00 0.00 90 1013.7
20260905110631 54 110 0.0 1.0 0.00 0.00 0.00 90 1013.7
20260905110531 54 110 0.0 2.0 0.00 0.00 0.00 90 1013.7
20260905110429 54 110 0.0 2.0 0.00 0.00 0.00 90 1013.8
20260905110327 54 110 1.0 2.0 0.00 0.00 0.00 90 1013.8
20260905110305 54 110 1.0 2.0 0.00 0.00 0.00 90 1013.8
20260905110224 54 110 1.0 2.0 0.00 0.00 0.00 90 1013.8
20260905110123 54 110 1.0 2.0 0.00 0.00 0.00 90 1013.8
20260905110024 54 110 1.0 2.0 0.00 0.00 0.00 90 1013.8
20260905110008 54 110 1.0 2.0 0.00 0.00 0.00 90 1013.8
20260905105924 54 110 1.0 2.0 0.00 0.00 0.00 90 1013.8
20260905105900 54 110 1.0 2.0 0.00 0.00 0.00 90 1013.7
20260905105722 54 110 1.0 2.0 0.00 0.00 0.00 90 1013.8
20260905105621 54 110 1.0 2.0 0.00 0.00 0.00 90 1013.8
20260905105521 54 110 1.0 2.0 0.00 0.00 0.00 90 1013.8
20260905105421 54 110 1.0 2.0 0.00 0.00 0.00 90 1013.8
20260905105321 54 108 1.0 2.0 0.00 0.00 0.00 90 1013.7
20260905105249 54 108 1.0 2.0 0.00 0.00 0.00 90 1013.7
20260905105220 54 107 1.0 2.0 0.00 0.00 0.00 90 1013.7
20260905105117 54 108 1.0 2.0 0.00 0.00 0.00 90 1013.7
20260905105015 54 107 1.0 2.0 0.00 0.00 0.00 90 1013.7
20260905104916 54 107 1.0 2.0 0.00 0.00 0.00 90 1013.7
20260905104815 54 107 1.0 2.0 0.00 0.00 0.00 90 1013.8
20260905104749 54 108 1.0 2.0 0.00 0.00 0.00 90 1013.8
20260905104716 54 107 1.0 2.0 0.00 0.00 0.00 90 1013.8
20260905104615 54 112 1.0 2.0 0.00 0.00 0.00 90 1013.8
20260905104513 54 102 1.0 2.0 0.00 0.00 0.00 90 1013.8
20260905104413 55 110 1.0 2.0 0.00 0.00 0.00 89 1013.7
20260905104314 55 113 1.0 2.0 0.00 0.00 0.00 89 1013.7
20260905104248 55 113 1.0 2.0 0.00 0.00 0.00 89 1013.7
20260905104214 55 115 1.0 2.0 0.00 0.00 0.00 89 1013.7
20260905104113 55 114 1.0 2.0 0.00 0.00 0.00 89 1013.7
20260905104012 55 101 1.0 2.0 0.00 0.00 0.00 89 1013.7
20260905103912 55 115 1.0 3.0 0.00 0.00 0.00 89 1013.7
20260905103811 55 123 1.0 3.0 0.00 0.00 0.00 89 1013.7
20260905103746 55 110 1.0 3.0 0.00 0.00 0.00 89 1013.7
20260905103709 55 112 1.0 3.0 0.00 0.00 0.00 89 1013.7
20260905103608 55 111 2.0 3.0 0.00 0.00 0.00 89 1013.7
20260905103507 55 112 2.0 3.0 0.00 0.00 0.00 89 1013.7
20260905103408 55 112 2.0 3.0 0.00 0.00 0.00 89 1013.7
20260905103308 55 106 1.0 3.0 0.00 0.00 0.00 90 1013.7
20260905103247 55 106 1.0 3.0 0.00 0.00 0.00 90 1013.7
20260905103208 55 105 1.0 3.0 0.00 0.00 0.00 90 1013.7
20260905103107 55 89 1.0 3.0 0.00 0.00 0.00 90 1013.7
20260905103005 55 127 1.0 3.0 0.00 0.00 0.00 90 1013.7
20260905102906 54 108 1.0 3.0 0.00 0.00 0.00 90 1013.7
20260905102803 55 108 1.0 3.0 0.00 0.00 0.00 90 1013.7
20260905102740 54 109 1.0 3.0 0.00 0.00 0.00 90 1013.7
20260905102705 54 96 0.0 3.0 0.00 0.00 0.00 90 1013.7
20260905102601 54 114 0.0 2.0 0.00 0.00 0.00 90 1013.7
20260905102501 54 117 0.0 2.0 0.00 0.00 0.00 90 1013.7
20260905102400 54 130 0.0 1.0 0.00 0.00 0.00 90 1013.7
20260905102240 54 129 0.0 1.0 0.00 0.00 0.00 90 1013.8
20260905102202 54 129 0.0 1.0 0.00 0.00 0.00 90 1013.8
20260905102055 54 129 0.0 1.0 0.00 0.00 0.00 90 1013.8
20260905101956 54 130 0.0 1.0 0.00 0.00 0.00 90 1013.8
20260905101853 54 129 0.0 1.0 0.00 0.00 0.00 90 1013.8
20260905101741 54 129 0.0 1.0 0.00 0.00 0.00 90 1013.8
20260905101651 54 129 0.0 0.0 0.00 0.00 0.00 90 1013.8
20260905101548 54 130 0.0 0.0 0.00 0.00 0.00 90 1013.8
20260905101446 54 129 0.0 0.0 0.00 0.00 0.00 90 1013.8
20260905101343 54 129 0.0 0.0 0.00 0.00 0.00 90 1013.8
20260905101245 54 129 0.0 0.0 0.00 0.00 0.00 90 1013.8
20260905101144 54 129 0.0 0.0 0.00 0.00 0.00 90 1013.8
20260905101044 54 129 0.0 0.0 0.00 0.00 0.00 90 1013.7
20260905100939 54 129 0.0 0.0 0.00 0.00 0.00 89 1013.8
20260905100837 54 130 0.0 0.0 0.00 0.00 0.00 89 1013.8
20260905100744 54 130 0.0 0.0 0.00 0.00 0.00 89 1013.8
20260905100738 54 129 0.0 0.0 0.00 0.00 0.00 89 1013.8
20260905100638 54 130 0.0 0.0 0.00 0.00 0.00 89 1013.8
20260905100537 54 129 0.0 0.0 0.00 0.00 0.00 89 1013.8
20260905100437 54 130 0.0 0.0 0.00 0.00 0.00 90 1013.8
20260905100336 54 129 0.0 0.0 0.00 0.00 0.00 90 1013.8
20260905100241 54 130 0.0 0.0 0.00 0.00 0.00 90 1013.8
20260905100234 54 129 0.0 0.0 0.00 0.00 0.00 90 1013.8
20260905100133 54 129 0.0 0.0 0.00 0.00 0.00 89 1013.8
20260905100031 54 129 0.0 0.0 0.00 0.00 0.00 89 1013.8
20260905095929 54 130 0.0 0.0 0.00 0.00 0.00 88 1013.8
20260905095829 54 130 0.0 0.0 0.00 0.00 0.00 88 1013.8
20260905095738 54 130 0.0 0.0 0.00 0.00 0.00 88 1013.8
20260905095730 54 129 0.0 0.0 0.00 0.00 0.00 88 1013.8
20260905095627 54 129 0.0 0.0 0.00 0.00 0.00 88 1013.9
20260905095525 54 129 0.0 0.0 0.00 0.00 0.00 89 1013.8
20260905095452 54 129 0.0 0.0 0.00 0.00 0.00 88 1013.8
20260905095421 54 129 0.0 0.0 0.00 0.00 0.00 89 1013.8
20260905095346 54 129 0.0 0.0 0.00 0.00 0.00 89 1013.8
20260905095222 54 130 0.0 0.0 0.00 0.00 0.00 88 1013.8
20260905095121 54 129 0.0 0.0 0.00 0.00 0.00 88 1013.8
20260905095019 54 129 0.0 0.0 0.00 0.00 0.00 88 1013.8
20260905094916 55 130 0.0 0.0 0.00 0.00 0.00 88 1013.8
20260905094815 55 130 0.0 0.0 0.00 0.00 0.00 88 1013.9
20260905094715 55 129 0.0 0.0 0.00 0.00 0.00 88 1013.9
20260905094616 55 130 0.0 0.0 0.00 0.00 0.00 88 1013.8
20260905094513 55 129 0.0 0.0 0.00 0.00 0.00 88 1013.8
20260905094453 55 129 0.0 0.0 0.00 0.00 0.00 87 1013.8
20260905094407 55 129 0.0 0.0 0.00 0.00 0.00 87 1013.8
20260905094345 55 130 0.0 0.0 0.00 0.00 0.00 87 1013.8
20260905094208 55 130 0.0 0.0 0.00 0.00 0.00 87 1013.8
20260905094107 55 130 0.0 0.0 0.00 0.00 0.00 87 1013.8
20260905094007 55 129 0.0 1.0 0.00 0.00 0.00 87 1013.8
20260905093903 55 130 0.0 1.0 0.00 0.00 0.00 87 1013.8
20260905093734 55 129 0.0 1.0 0.00 0.00 0.00 87 1013.8
20260905093705 55 130 0.0 1.0 0.00 0.00 0.00 87 1013.8
20260905093604 55 129 0.0 1.0 0.00 0.00 0.00 87 1013.7
20260905093501 55 129 0.0 1.0 0.00 0.00 0.00 87 1013.8
20260905093401 55 129 0.0 1.0 0.00 0.00 0.00 87 1013.7
20260905093300 55 130 0.0 1.0 0.00 0.00 0.00 87 1013.8
20260905093232 55 129 0.0 1.0 0.00 0.00 0.00 87 1013.8
20260905093203 55 129 0.0 1.0 0.00 0.00 0.00 87 1013.8
20260905093057 55 130 0.0 1.0 0.00 0.00 0.00 87 1013.8
20260905092956 55 130 0.0 1.0 0.00 0.00 0.00 86 1013.8
20260905092849 56 129 0.0 1.0 0.00 0.00 0.00 86 1013.8
20260905092733 56 129 0.0 1.0 0.00 0.00 0.00 86 1013.8
20260905092649 56 129 0.0 1.0 0.00 0.00 0.00 86 1013.9
20260905092549 56 130 0.0 1.0 0.00 0.00 0.00 86 1013.8
20260905092449 56 129 0.0 1.0 0.00 0.00 0.00 86 1013.8
20260905092349 56 130 0.0 1.0 0.00 0.00 0.00 86 1013.8
20260905092247 56 130 0.0 1.0 0.00 0.00 0.00 86 1013.8
20260905092233 56 129 0.0 1.0 0.00 0.00 0.00 86 1013.8
20260905092147 56 129 0.0 1.0 0.00 0.00 0.00 86 1013.8
20260905092046 56 129 0.0 1.0 0.00 0.00 0.00 86 1013.8
20260905091951 56 129 0.0 1.0 0.00 0.00 0.00 86 1013.9
20260905091943 56 129 0.0 1.0 0.00 0.00 0.00 86 1013.9
20260905091850 56 130 0.0 1.0 0.00 0.00 0.00 86 1013.9
20260905091841 56 129 0.0 1.0 0.00 0.00 0.00 86 1013.9
20260905091643 56 129 0.0 1.0 0.00 0.00 0.00 86 1013.9
20260905091543 56 130 0.0 1.0 0.00 0.00 0.00 86 1013.8
20260905091443 56 129 0.0 1.0 0.00 0.00 0.00 86 1013.8
20260905091341 56 130 0.0 1.0 0.00 0.00 0.00 86 1013.9
20260905091231 56 129 0.0 1.0 0.00 0.00 0.00 85 1013.9
20260905091139 56 129 0.0 1.0 0.00 0.00 0.00 85 1013.9
20260905091037 56 129 0.0 1.0 0.00 0.00 0.00 85 1013.9
20260905090950 56 129 0.0 1.0 0.00 0.00 0.00 85 1013.9
20260905090938 56 129 0.0 1.0 0.00 0.00 0.00 85 1013.9
20260905090849 56 130 0.0 1.0 0.00 0.00 0.00 85 1013.9
20260905090841 56 129 0.0 1.0 0.00 0.00 0.00 85 1013.9
20260905090637 56 129 0.0 1.0 0.00 0.00 0.00 85 1013.9
20260905090537 56 129 0.0 1.0 0.00 0.00 0.00 85 1013.9
20260905090454 56 129 0.0 1.0 0.00 0.00 0.00 85 1013.9
20260905090437 56 130 0.0 1.0 0.00 0.00 0.00 85 1013.9
20260905090348 56 129 0.0 1.0 0.00 0.00 0.00 85 1013.9
20260905090339 56 130 0.0 1.0 0.00 0.00 0.00 85 1013.9
20260905090135 56 129 0.0 1.0 0.00 0.00 0.00 84 1013.9
20260905090035 56 129 0.0 1.0 0.00 0.00 0.00 85 1013.9
20260905085931 56 130 0.0 1.0 0.00 0.00 0.00 85 1013.9
20260905085831 56 129 0.0 1.0 0.00 0.00 0.00 85 1013.9
20260905085733 56 129 0.0 1.0 0.00 0.00 0.00 84 1013.9
20260905085629 56 130 0.0 1.0 0.00 0.00 0.00 84 1013.9
20260905085527 56 129 0.0 1.0 0.00 0.00 0.00 84 1013.9
20260905085427 56 130 0.0 1.0 0.00 0.00 0.00 84 1013.9
20260905085328 56 130 0.0 0.0 0.00 0.00 0.00 84 1013.9
20260905085229 56 129 0.0 1.0 0.00 0.00 0.00 84 1013.9
20260905085127 56 129 0.0 1.0 0.00 0.00 0.00 84 1013.9
20260905085026 56 130 0.0 1.0 0.00 0.00 0.00 84 1013.9
20260905084923 56 130 0.0 1.0 0.00 0.00 0.00 83 1013.9
20260905084823 56 129 0.0 1.0 0.00 0.00 0.00 83 1013.9
20260905084723 57 129 0.0 1.0 0.00 0.00 0.00 83 1014.0
20260905084611 57 129 0.0 2.0 0.00 0.00 0.00 83 1014.0
20260905084511 57 129 0.0 2.0 0.00 0.00 0.00 83 1014.0
20260905084411 57 129 0.0 2.0 0.00 0.00 0.00 83 1013.9
20260905084311 57 129 0.0 2.0 0.00 0.00 0.00 83 1014.0
20260905084211 57 89 0.0 2.0 0.00 0.00 0.00 83 1014.0
20260905084106 57 88 0.0 2.0 0.00 0.00 0.00 83 1014.0
20260905084006 57 88 0.0 2.0 0.00 0.00 0.00 83 1014.0
20260905083906 57 89 0.0 2.0 0.00 0.00 0.00 83 1014.0
20260905083806 57 89 0.0 2.0 0.00 0.00 0.00 83 1014.0
20260905083712 57 88 0.0 2.0 0.00 0.00 0.00 83 1014.0
20260905083706 57 117 0.0 2.0 0.00 0.00 0.00 83 1014.0
20260905083559 57 117 0.0 2.0 0.00 0.00 0.00 83 1014.0
20260905083500 57 117 0.0 2.0 0.00 0.00 0.00 83 1014.0
20260905083424 57 146 0.0 2.0 0.00 0.00 0.00 82 1014.0
20260905083359 57 117 0.0 2.0 0.00 0.00 0.00 83 1014.0
20260905083312 57 117 0.0 2.0 0.00 0.00 0.00 83 1014.0
20260905083201 57 117 0.0 2.0 0.00 0.00 0.00 83 1014.0
20260905083057 57 117 0.0 2.0 0.00 0.00 0.00 83 1014.0
20260905083045 57 127 0.0 2.0 0.00 0.00 0.00 83 1014.0
20260905082858 57 127 0.0 2.0 0.00 0.00 0.00 83 1014.0
20260905082756 57 146 0.0 2.0 0.00 0.00 0.00 83 1014.0
20260905082654 57 134 0.0 2.0 0.00 0.00 0.00 82 1014.0
20260905082554 57 146 0.0 2.0 0.00 0.00 0.00 83 1014.0
20260905082451 57 147 0.0 2.0 0.00 0.00 0.00 83 1014.0
20260905082352 57 105 0.0 2.0 0.00 0.00 0.00 83 1014.0
20260905082249 57 105 0.0 2.0 0.00 0.00 0.00 83 1013.9
20260905082211 57 113 0.0 2.0 0.00 0.00 0.00 83 1014.0
20260905082147 57 113 0.0 2.0 0.00 0.00 0.00 82 1014.0
20260905082047 57 155 0.0 2.0 0.00 0.00 0.00 82 1014.0
20260905081946 57 155 0.0 2.0 0.00 0.00 0.00 82 1013.9
20260905081845 57 155 0.0 2.0 0.00 0.00 0.00 82 1013.9
20260905081743 57 155 0.0 2.0 0.00 0.00 0.00 82 1013.9
20260905081712 57 155 0.0 2.0 0.00 0.00 0.00 82 1014.0
20260905081641 57 155 0.0 2.0 0.00 0.00 0.00 82 1014.0
20260905081538 57 155 0.0 2.0 0.00 0.00 0.00 82 1014.0
20260905081438 57 155 0.0 2.0 0.00 0.00 0.00 82 1014.0
20260905081338 57 155 0.0 2.0 0.00 0.00 0.00 81 1014.0
20260905081237 57 155 0.0 2.0 0.00 0.00 0.00 81 1013.9
20260905081211 57 155 0.0 1.0 0.00 0.00 0.00 81 1014.0
20260905081135 57 155 0.0 1.0 0.00 0.00 0.00 81 1014.0
20260905081036 57 155 0.0 1.0 0.00 0.00 0.00 81 1014.0
20260905080936 57 155 0.0 1.0 0.00 0.00 0.00 81 1014.0
20260905080833 57 155 0.0 1.0 0.00 0.00 0.00 81 1013.9
20260905080711 57 155 0.0 1.0 0.00 0.00 0.00 81 1013.9
20260905080629 57 155 0.0 1.0 0.00 0.00 0.00 81 1013.9
20260905080530 57 155 0.0 1.0 0.00 0.00 0.00 81 1013.9
20260905080428 58 155 0.0 2.0 0.00 0.00 0.00 80 1013.9
20260905080327 58 155 0.0 2.0 0.00 0.00 0.00 81 1013.9
20260905080225 58 156 0.0 2.0 0.00 0.00 0.00 80 1013.9
20260905080123 58 108 0.0 2.0 0.00 0.00 0.00 80 1013.9
20260905080017 58 108 0.0 2.0 0.00 0.00 0.00 80 1013.9
20260905075917 58 108 0.0 2.0 0.00 0.00 0.00 80 1013.9
20260905075817 58 108 0.0 2.0 0.00 0.00 0.00 80 1013.9
20260905075711 58 108 1.0 2.0 0.00 0.00 0.00 80 1013.9
20260905075618 58 108 1.0 2.0 0.00 0.00 0.00 80 1013.9
20260905075512 58 117 1.0 3.0 0.00 0.00 0.00 80 1013.9
20260905075411 58 117 1.0 3.0 0.00 0.00 0.00 80 1013.8
20260905075311 58 117 1.0 3.0 0.00 0.00 0.00 80 1013.8
20260905075211 58 117 1.0 3.0 0.00 0.00 0.00 80 1013.8
20260905075111 58 116 1.0 3.0 0.00 0.00 0.00 80 1013.8
20260905075005 58 115 1.0 3.0 0.00 0.00 0.00 80 1013.8
20260905074905 58 103 1.0 3.0 0.00 0.00 0.00 80 1013.8
20260905074806 58 103 1.0 3.0 0.00 0.00 0.00 80 1013.8
20260905074706 58 103 1.0 3.0 0.00 0.00 0.00 80 1013.8
20260905074605 58 103 1.0 3.0 0.00 0.00 0.00 80 1013.8
20260905074459 58 100 1.0 3.0 0.00 0.00 0.00 80 1013.8
20260905074359 58 112 1.0 4.0 0.00 0.00 0.00 80 1013.8
20260905074259 58 71 1.0 4.0 0.00 0.00 0.00 80 1013.8
20260905074211 58 173 1.0 4.0 0.00 0.00 0.00 80 1013.7
20260905074201 58 173 1.0 4.0 0.00 0.00 0.00 79 1013.7
20260905074100 58 174 1.0 4.0 0.00 0.00 0.00 79 1013.7
20260905073953 58 174 2.0 4.0 0.00 0.00 0.00 79 1013.7
20260905073854 58 174 2.0 4.0 0.00 0.00 0.00 79 1013.7
20260905073753 58 173 2.0 4.0 0.00 0.00 0.00 79 1013.7
20260905073710 58 103 2.0 4.0 0.00 0.00 0.00 79 1013.7
20260905073656 58 103 2.0 4.0 0.00 0.00 0.00 79 1013.7
20260905073554 58 103 2.0 4.0 0.00 0.00 0.00 79 1013.6
20260905073447 58 100 2.0 4.0 0.00 0.00 0.00 79 1013.7
20260905073348 58 98 1.0 4.0 0.00 0.00 0.00 79 1013.6
20260905073247 58 88 1.0 4.0 0.00 0.00 0.00 79 1013.6
20260905073211 58 110 1.0 4.0 0.00 0.00 0.00 79 1013.6
20260905073146 58 113 1.0 4.0 0.00 0.00 0.00 79 1013.6
20260905073046 58 110 1.0 4.0 0.00 0.00 0.00 79 1013.6
20260905072940 58 107 1.0 4.0 0.00 0.00 0.00 79 1013.6
20260905072839 58 109 1.0 3.0 0.00 0.00 0.00 78 1013.6
20260905072739 58 103 1.0 3.0 0.00 0.01 0.00 78 1013.6
20260905072711 58 115 1.0 3.0 0.00 0.01 0.00 78 1013.6
20260905072639 58 102 1.0 3.0 0.00 0.01 0.00 78 1013.6
20260905072539 58 79 1.0 3.0 0.00 0.01 0.00 78 1013.6
20260905072435 58 79 1.0 3.0 0.00 0.01 0.00 78 1013.6
20260905072336 58 78 1.0 3.0 0.00 0.01 0.00 78 1013.7
20260905072234 59 77 2.0 4.0 0.00 0.01 0.00 78 1013.7
20260905072223 59 60 2.0 4.0 0.00 0.01 0.00 78 1013.6
20260905072133 59 117 2.0 4.0 0.00 0.01 0.00 78 1013.6
20260905072031 59 111 2.0 4.0 0.00 0.01 0.00 77 1013.6
20260905071926 59 110 2.0 4.0 0.00 0.01 0.00 77 1013.6
20260905071825 59 118 2.0 4.0 0.00 0.01 0.00 77 1013.6
20260905071725 59 99 2.0 4.0 0.00 0.01 0.00 77 1013.6
20260905071706 59 115 2.0 4.0 0.00 0.01 0.00 77 1013.6
20260905071626 59 103 2.0 4.0 0.00 0.01 0.00 77 1013.6
20260905071525 59 100 2.0 4.0 0.00 0.01 0.00 77 1013.6
20260905071432 59 113 1.0 3.0 0.00 0.02 0.00 77 1013.5
20260905071425 59 95 2.0 4.0 0.00 0.01 0.00 77 1013.6
20260905071324 59 96 2.0 3.0 0.00 0.02 0.00 77 1013.6
20260905071309 59 113 2.0 3.0 0.00 0.02 0.00 77 1013.6
20260905071122 60 113 1.0 3.0 0.00 0.02 0.00 77 1013.5
20260905071020 60 88 1.0 3.0 0.00 0.02 0.00 77 1013.6
20260905070916 60 113 1.0 3.0 0.00 0.02 0.00 77 1013.6
20260905070813 60 167 1.0 3.0 0.00 0.02 0.00 77 1013.6
20260905070713 60 83 1.0 3.0 0.00 0.02 0.00 77 1013.5
20260905070654 60 103 1.0 3.0 0.00 0.02 0.00 77 1013.5
20260905070629 60 113 1.0 3.0 0.00 0.02 0.00 77 1013.4
20260905070613 60 115 1.0 3.0 0.00 0.02 0.00 77 1013.5
20260905070522 60 75 1.0 3.0 0.00 0.02 0.00 77 1013.5
20260905070410 60 68 1.0 3.0 0.00 0.02 0.00 77 1013.5
20260905070307 60 104 1.0 3.0 0.00 0.02 0.00 77 1013.4
20260905070257 60 107 1.0 3.0 0.00 0.02 0.00 77 1013.4
20260905070108 60 111 1.0 3.0 0.00 0.03 0.00 77 1013.4
20260905070008 60 115 1.0 3.0 0.00 0.03 0.00 76 1013.3
20260905065910 60 150 1.0 6.0 0.00 0.03 0.03 76 1013.3
20260905065906 60 139 1.0 4.0 0.00 0.03 0.03 76 1013.3
20260905065806 60 153 1.0 4.0 0.00 0.03 0.03 76 1013.3
20260905065758 60 149 1.0 4.0 0.00 0.03 0.03 76 1013.3
20260905065604 60 157 2.0 6.0 0.00 0.03 0.03 76 1013.3
20260905065501 60 139 2.0 6.0 0.00 0.03 0.03 76 1013.3
20260905065357 60 139 2.0 6.0 0.00 0.03 0.03 76 1013.3
20260905065255 60 233 2.0 6.0 0.00 0.03 0.03 76 1013.2
20260905065201 60 233 2.0 6.0 0.00 0.03 0.03 76 1013.2
20260905065147 60 183 2.0 6.0 0.00 0.03 0.03 76 1013.2
20260905065054 60 210 2.0 6.0 0.00 0.03 0.03 76 1013.2
20260905064951 60 219 1.0 6.0 0.00 0.03 0.03 76 1013.2
20260905064846 60 235 2.0 6.0 0.00 0.03 0.03 76 1013.2
20260905064746 60 235 2.0 6.0 0.00 0.03 0.03 76 1013.2
20260905064646 60 224 2.0 6.0 0.00 0.03 0.03 75 1013.1
20260905064546 60 146 2.0 6.0 0.00 0.03 0.03 75 1013.2
20260905064446 60 194 2.0 6.0 0.00 0.03 0.03 75 1013.1
20260905064346 60 201 2.0 6.0 0.00 0.03 0.03 75 1013.2
20260905064244 60 229 2.0 6.0 0.00 0.03 0.03 75 1013.1
20260905064144 60 186 2.0 6.0 0.00 0.03 0.03 75 1013.1
20260905064042 60 186 2.0 6.0 0.00 0.03 0.03 75 1013.1
20260905063939 60 231 2.0 6.0 0.00 0.03 0.03 75 1013.2
20260905063838 60 145 2.0 6.0 0.00 0.03 0.03 75 1013.2
20260905063737 60 215 2.0 6.0 0.00 0.03 0.03 75 1013.1
20260905063645 60 210 2.0 5.0 0.00 0.03 0.03 75 1013.1
20260905063638 60 226 2.0 5.0 0.00 0.03 0.03 75 1013.1
20260905063536 60 217 2.0 5.0 0.00 0.03 0.03 75 1013.2
20260905063433 60 240 2.0 5.0 0.00 0.03 0.03 74 1013.2
20260905063327 60 183 2.0 5.0 0.00 0.03 0.03 74 1013.2
20260905063229 60 210 2.0 5.0 0.00 0.03 0.03 74 1013.2
20260905063145 60 231 2.0 5.0 0.00 0.03 0.03 74 1013.2
20260905063127 60 225 2.0 5.0 0.00 0.03 0.03 74 1013.2
20260905063028 60 226 2.0 5.0 0.00 0.03 0.03 74 1013.2
20260905062927 60 163 1.0 5.0 0.00 0.03 0.03 74 1013.2
20260905062823 60 212 1.0 4.0 0.00 0.03 0.03 74 1013.2
20260905062723 60 228 1.0 4.0 0.00 0.03 0.03 74 1013.2
20260905062657 60 228 1.0 4.0 0.00 0.03 0.03 74 1013.2
20260905062624 60 229 1.0 4.0 0.00 0.03 0.03 74 1013.2
20260905062524 61 221 2.0 4.0 0.00 0.03 0.03 74 1013.2
20260905062420 61 228 1.0 4.0 0.00 0.03 0.03 74 1013.2
20260905062316 61 223 1.0 3.0 0.00 0.03 0.03 74 1013.2
20260905062216 61 222 1.0 3.0 0.00 0.03 0.03 74 1013.3
20260905062143 61 223 1.0 3.0 0.00 0.03 0.03 74 1013.3
20260905062116 61 222 1.0 4.0 0.00 0.03 0.03 74 1013.2
20260905062016 61 214 2.0 5.0 0.00 0.03 0.03 74 1013.2
20260905061915 61 174 2.0 5.0 0.00 0.03 0.03 74 1013.2
20260905061859 61 214 2.0 5.0 0.00 0.03 0.03 74 1013.2
20260905061816 61 216 2.0 5.0 0.00 0.03 0.03 74 1013.2
20260905061715 61 212 2.0 5.0 0.00 0.03 0.03 74 1013.2
20260905061613 61 163 2.0 5.0 0.00 0.03 0.03 74 1013.3
20260905061511 61 226 2.0 5.0 0.00 0.03 0.03 74 1013.2
20260905061410 61 225 2.0 5.0 0.00 0.03 0.03 73 1013.3
20260905061303 61 221 2.0 5.0 0.00 0.03 0.03 73 1013.2
20260905061204 61 221 2.0 5.0 0.00 0.03 0.03 73 1013.2
20260905061141 61 212 2.0 5.0 0.00 0.03 0.03 73 1013.2
20260905061103 61 193 2.0 5.0 0.00 0.03 0.03 73 1013.3
20260905061004 61 232 2.0 5.0 0.00 0.03 0.03 73 1013.3
20260905060907 61 243 2.0 5.0 0.00 0.03 0.03 73 1013.3
20260905060858 61 221 2.0 5.0 0.00 0.03 0.03 73 1013.3
20260905060759 61 242 2.0 5.0 0.00 0.03 0.03 73 1013.3
20260905060751 61 221 2.0 5.0 0.00 0.03 0.03 73 1013.3
20260905060558 61 198 2.0 5.0 0.00 0.03 0.03 73 1013.2
20260905060458 61 229 2.0 5.0 0.00 0.03 0.03 73 1013.3
20260905060357 61 207 2.0 5.0 0.00 0.03 0.03 73 1013.2
20260905060252 61 226 2.0 6.0 0.00 0.03 0.03 73 1013.2
20260905060154 61 235 2.0 6.0 0.00 0.03 0.03 73 1013.2
20260905060052 62 239 2.0 6.0 0.00 0.03 0.03 73 1013.3
20260905055951 62 241 2.0 6.0 0.00 0.03 0.03 73 1013.2
20260905055851 62 231 2.0 6.0 0.00 0.03 0.03 73 1013.2
20260905055746 62 230 2.0 6.0 0.00 0.03 0.03 73 1013.3
20260905055649 62 230 2.0 6.0 0.00 0.03 0.03 73 1013.3
20260905055638 62 229 2.0 6.0 0.00 0.03 0.03 73 1013.3
20260905055546 62 229 2.0 6.0 0.00 0.03 0.03 73 1013.3
20260905055445 62 239 2.0 6.0 0.00 0.03 0.03 73 1013.3
20260905055346 62 231 2.0 6.0 0.00 0.03 0.03 73 1013.3
20260905055242 62 243 2.0 6.0 0.00 0.03 0.03 73 1013.3
20260905055145 62 232 2.0 6.0 0.00 0.03 0.03 73 1013.3
20260905055139 62 233 2.0 6.0 0.00 0.03 0.03 73 1013.3
20260905055040 62 226 2.0 6.0 0.00 0.03 0.03 73 1013.3
20260905054940 62 211 2.0 6.0 0.00 0.03 0.03 73 1013.3
20260905054840 62 236 2.0 6.0 0.00 0.03 0.03 73 1013.3
20260905054735 62 238 2.0 6.0 0.00 0.03 0.03 73 1013.3
20260905054640 62 186 2.0 6.0 0.00 0.03 0.03 73 1013.3
20260905054634 62 240 2.0 6.0 0.00 0.03 0.03 73 1013.3
20260905054533 62 236 2.0 6.0 0.00 0.03 0.03 73 1013.2
20260905054434 62 239 2.0 6.0 0.00 0.03 0.03 73 1013.3
20260905054333 62 218 3.0 7.0 0.00 0.03 0.03 73 1013.2
20260905054228 62 259 3.0 7.0 0.00 0.03 0.03 73 1013.2
20260905054128 62 229 3.0 7.0 0.00 0.03 0.03 73 1013.2
20260905054027 62 211 3.0 7.0 0.00 0.03 0.03 73 1013.3
20260905053928 62 141 2.0 7.0 0.00 0.03 0.03 73 1013.2
20260905053827 62 239 3.0 7.0 0.00 0.03 0.03 73 1013.3
20260905053720 62 255 3.0 8.0 0.00 0.03 0.03 73 1013.3
20260905053638 62 233 3.0 8.0 0.00 0.03 0.03 73 1013.3
20260905053619 62 193 3.0 8.0 0.00 0.03 0.03 73 1013.3
20260905053520 62 173 3.0 8.0 0.00 0.03 0.03 73 1013.3
20260905053420 62 215 3.0 8.0 0.00 0.03 0.03 73 1013.3
20260905053317 62 207 2.0 8.0 0.00 0.03 0.03 72 1013.3
20260905053212 62 229 2.0 8.0 0.00 0.03 0.03 72 1013.3
20260905053132 62 210 2.0 8.0 0.00 0.03 0.03 72 1013.3
20260905053112 62 235 2.0 8.0 0.00 0.03 0.03 72 1013.3
20260905053012 62 203 3.0 8.0 0.00 0.03 0.03 72 1013.3
20260905052911 62 235 3.0 8.0 0.00 0.03 0.03 72 1013.3
20260905052812 62 234 3.0 7.0 0.00 0.03 0.03 72 1013.3
20260905052714 62 158 3.0 7.0 0.00 0.03 0.03 72 1013.3
20260905052627 62 218 3.0 7.0 0.00 0.03 0.03 72 1013.3
20260905052607 62 186 3.0 7.0 0.00 0.03 0.03 72 1013.3
20260905052508 62 239 3.0 7.0 0.00 0.03 0.03 72 1013.3
20260905052408 62 241 3.0 7.0 0.00 0.03 0.03 72 1013.3
20260905052306 62 242 3.0 7.0 0.00 0.03 0.03 72 1013.3
20260905052203 63 241 3.0 7.0 0.00 0.03 0.03 72 1013.3
20260905052121 63 224 3.0 7.0 0.00 0.03 0.03 72 1013.3
20260905052101 63 224 3.0 7.0 0.00 0.03 0.03 72 1013.3
20260905052002 63 201 3.0 7.0 0.00 0.03 0.03 72 1013.3
20260905051902 63 217 3.0 6.0 0.00 0.03 0.03 71 1013.3
20260905051800 63 241 3.0 6.0 0.00 0.03 0.03 71 1013.3
20260905051658 63 228 3.0 7.0 0.00 0.03 0.03 71 1013.3
20260905051614 63 228 4.0 7.0 0.00 0.03 0.03 71 1013.4
20260905051554 63 229 4.0 8.0 0.00 0.03 0.03 71 1013.4
20260905051454 63 248 4.0 8.0 0.00 0.03 0.03 71 1013.3
20260905051354 63 235 4.0 8.0 0.00 0.03 0.03 71 1013.3
20260905051253 63 231 4.0 9.0 0.00 0.03 0.03 71 1013.3
20260905051150 63 226 4.0 9.0 0.00 0.03 0.03 71 1013.4
20260905051108 63 245 4.0 9.0 0.00 0.03 0.03 71 1013.3
20260905051047 63 238 4.0 9.0 0.00 0.03 0.03 70 1013.3
20260905050948 63 245 4.0 9.0 0.00 0.03 0.03 70 1013.3
20260905050847 63 217 4.0 9.0 0.00 0.03 0.03 70 1013.3
20260905050748 63 239 4.0 9.0 0.00 0.03 0.03 70 1013.3
20260905050644 63 228 4.0 9.0 0.00 0.03 0.03 70 1013.3
20260905050602 63 212 4.0 9.0 0.00 0.03 0.03 70 1013.4
20260905050542 63 226 4.0 9.0 0.00 0.03 0.03 70 1013.4
20260905050442 63 238 4.0 9.0 0.00 0.03 0.03 70 1013.4
20260905050341 64 223 4.0 9.0 0.00 0.03 0.03 70 1013.4
20260905050242 64 194 4.0 9.0 0.00 0.03 0.03 69 1013.3
20260905050137 64 226 4.0 9.0 0.00 0.03 0.03 69 1013.3
20260905050109 64 262 4.0 9.0 0.00 0.03 0.03 69 1013.4
20260905050036 64 232 4.0 9.0 0.00 0.03 0.03 69 1013.4
20260905045935 64 215 3.0 9.0 0.00 0.03 0.03 69 1013.3
20260905045836 64 256 3.0 9.0 0.00 0.03 0.03 69 1013.3
20260905045735 64 250 3.0 9.0 0.00 0.03 0.03 69 1013.4
20260905045635 64 235 3.0 9.0 0.00 0.03 0.03 69 1013.3
20260905045550 64 218 3.0 9.0 0.00 0.03 0.03 69 1013.3
20260905045533 64 229 3.0 9.0 0.00 0.03 0.03 69 1013.3
20260905045434 64 248 3.0 9.0 0.00 0.03 0.03 68 1013.3
20260905045332 64 238 3.0 9.0 0.00 0.03 0.03 68 1013.4
20260905045230 64 226 3.0 9.0 0.00 0.03 0.03 68 1013.4
20260905045127 64 238 3.0 8.0 0.00 0.03 0.03 68 1013.4
20260905045044 64 283 3.0 8.0 0.00 0.03 0.03 68 1013.4
20260905045028 64 253 3.0 8.0 0.00 0.03 0.03 68 1013.4
20260905044928 64 228 3.0 10.0 0.00 0.03 0.03 67 1013.4
20260905044825 64 228 4.0 10.0 0.00 0.03 0.03 67 1013.4
20260905044724 65 231 4.0 10.0 0.00 0.03 0.03 67 1013.4
20260905044620 65 219 4.0 10.0 0.00 0.03 0.03 67 1013.4
20260905044538 65 210 3.0 10.0 0.00 0.03 0.03 67 1013.3
20260905044520 65 235 3.0 10.0 0.00 0.03 0.03 67 1013.3
20260905044419 65 231 4.0 10.0 0.00 0.03 0.03 66 1013.4
20260905044320 65 231 4.0 10.0 0.00 0.03 0.03 66 1013.3
20260905044218 65 242 4.0 10.0 0.00 0.03 0.03 66 1013.3
20260905044111 65 238 3.0 10.0 0.00 0.03 0.03 66 1013.2
20260905044032 65 238 3.0 10.0 0.00 0.03 0.03 66 1013.2
20260905044012 65 231 3.0 7.0 0.00 0.03 0.03 66 1013.2
20260905043911 65 231 3.0 7.0 0.00 0.03 0.03 65 1013.3
20260905043811 65 246 3.0 6.0 0.00 0.03 0.03 65 1013.2
20260905043747 65 241 3.0 6.0 0.00 0.03 0.03 64 1013.2
20260905043713 65 224 3.0 6.0 0.00 0.03 0.03 65 1013.3
20260905043637 65 228 3.0 6.0 0.00 0.03 0.03 64 1013.2
20260905043505 65 241 3.0 8.0 0.00 0.03 0.03 64 1013.2
20260905043406 65 240 3.0 8.0 0.00 0.03 0.03 63 1013.3
20260905043305 66 200 3.0 8.0 0.00 0.03 0.03 63 1013.2
20260905043206 66 240 3.0 8.0 0.00 0.03 0.03 63 1013.3
20260905043108 66 219 3.0 8.0 0.00 0.03 0.03 63 1013.2
20260905043022 66 226 3.0 8.0 0.00 0.03 0.03 63 1013.2
20260905043005 66 221 3.0 8.0 0.00 0.03 0.03 63 1013.2
20260905042903 66 228 3.0 8.0 0.00 0.03 0.03 62 1013.2
20260905042801 66 248 3.0 8.0 0.00 0.03 0.03 62 1013.1
20260905042700 66 236 3.0 8.0 0.00 0.03 0.03 62 1013.1
20260905042556 66 230 3.0 8.0 0.00 0.03 0.03 62 1013.1
20260905042514 66 257 3.0 8.0 0.00 0.03 0.03 62 1013.1
20260905042454 66 236 3.0 8.0 0.00 0.03 0.03 62 1013.1
20260905042354 66 246 2.0 8.0 0.00 0.03 0.03 62 1013.1
20260905042253 66 231 2.0 8.0 0.00 0.03 0.03 62 1013.1
20260905042157 66 211 2.0 8.0 0.00 0.03 0.03 61 1013.1
20260905042048 66 203 3.0 10.0 0.00 0.03 0.03 61 1013.1
20260905042008 66 239 3.0 10.0 0.00 0.03 0.03 61 1013.1
20260905041948 66 238 3.0 10.0 0.00 0.03 0.03 61 1013.1
20260905041848 66 260 3.0 10.0 0.00 0.03 0.03 61 1013.0
20260905041748 66 243 3.0 10.0 0.00 0.03 0.03 61 1013.0
20260905041648 66 238 3.0 10.0 0.00 0.03 0.03 61 1013.0
20260905041546 66 219 3.0 10.0 0.00 0.03 0.03 61 1013.0
20260905041503 66 219 3.0 10.0 0.00 0.03 0.03 61 1013.0
20260905041445 66 235 3.0 10.0 0.00 0.03 0.03 61 1013.0
20260905041346 66 235 3.0 10.0 0.00 0.03 0.03 61 1013.0
20260905041244 67 210 3.0 10.0 0.00 0.03 0.03 61 1013.0
20260905041141 67 235 3.0 10.0 0.00 0.03 0.03 61 1013.0
20260905041037 67 239 3.0 10.0 0.00 0.03 0.03 61 1013.0
20260905040956 67 240 3.0 10.0 0.00 0.03 0.03 61 1013.0
20260905040937 67 218 3.0 10.0 0.00 0.03 0.03 61 1013.0
20260905040838 67 231 3.0 9.0 0.00 0.03 0.03 61 1012.9
20260905040739 67 212 3.0 9.0 0.00 0.03 0.03 61 1012.9
20260905040636 67 246 3.0 9.0 0.00 0.03 0.03 61 1012.9
20260905040532 67 208 3.0 9.0 0.00 0.03 0.03 61 1012.9
20260905040449 67 235 2.0 8.0 0.00 0.03 0.03 61 1012.9
20260905040433 67 231 2.0 9.0 0.00 0.03 0.03 61 1012.9
20260905040429 67 198 2.0 6.0 0.00 0.03 0.03 61 1012.9
20260905040330 67 224 2.0 6.0 0.00 0.03 0.03 61 1012.9
20260905040311 67 233 2.0 6.0 0.00 0.03 0.03 61 1012.9
20260905040129 67 200 2.0 6.0 0.00 0.03 0.03 61 1012.9
20260905040055 67 250 2.0 6.0 0.00 0.03 0.03 61 1012.9
20260905035927 67 228 2.0 9.0 0.00 0.03 0.03 61 1012.9
20260905035824 67 221 3.0 9.0 0.00 0.03 0.03 61 1012.9
20260905035723 67 221 3.0 9.0 0.00 0.03 0.03 61 1012.9
20260905035658 67 231 3.0 11.0 0.00 0.03 0.03 60 1012.8
20260905035624 67 235 3.0 9.0 0.00 0.03 0.03 60 1012.9
20260905035549 67 231 3.0 9.0 0.00 0.03 0.03 60 1012.9
20260905035418 67 231 3.0 11.0 0.00 0.03 0.03 60 1012.8
20260905035318 67 232 3.0 11.0 0.00 0.03 0.03 60 1012.8
20260905035218 67 294 3.0 11.0 0.00 0.03 0.03 60 1012.8
20260905035122 67 238 3.0 11.0 0.00 0.03 0.03 60 1012.7
20260905035011 67 242 3.0 11.0 0.00 0.03 0.03 60 1012.7
20260905034932 67 240 3.0 11.0 0.00 0.03 0.03 60 1012.7
20260905034912 67 212 3.0 11.0 0.00 0.03 0.03 60 1012.8
20260905034811 67 242 3.0 11.0 0.00 0.03 0.03 60 1012.7
20260905034712 67 255 3.0 11.0 0.00 0.03 0.03 60 1012.8
20260905034611 67 226 3.0 11.0 0.00 0.03 0.03 60 1012.8
20260905034506 67 248 2.0 11.0 0.00 0.03 0.03 60 1012.8
20260905034427 67 250 2.0 10.0 0.00 0.03 0.03 60 1012.8
20260905034406 67 230 2.0 10.0 0.00 0.03 0.03 60 1012.7
20260905034305 68 252 2.0 10.0 0.00 0.03 0.03 60 1012.7
20260905034207 68 276 2.0 10.0 0.00 0.03 0.03 60 1012.7
20260905034105 68 240 2.0 10.0 0.00 0.03 0.03 60 1012.7
20260905034001 68 163 2.0 10.0 0.00 0.03 0.03 60 1012.7
20260905033924 68 253 2.0 10.0 0.00 0.03 0.03 60 1012.7
20260905033859 68 233 2.0 10.0 0.00 0.03 0.03 60 1012.7
20260905033800 68 253 2.0 7.0 0.00 0.03 0.03 60 1012.7
20260905033700 68 228 3.0 7.0 0.00 0.03 0.03 60 1012.7
20260905033559 68 242 3.0 7.0 0.00 0.03 0.03 60 1012.7
20260905033500 68 253 3.0 8.0 0.00 0.03 0.03 59 1012.6
20260905033414 68 245 3.0 9.0 0.00 0.03 0.03 59 1012.7
20260905033358 68 245 3.0 9.0 0.00 0.03 0.03 59 1012.7
20260905033256 68 236 4.0 9.0 0.00 0.03 0.03 59 1012.6
20260905033156 68 259 4.0 9.0 0.00 0.03 0.03 59 1012.7
20260905033054 68 232 4.0 9.0 0.00 0.03 0.03 59 1012.6
20260905032952 68 248 3.0 9.0 0.00 0.03 0.03 59 1012.6
20260905032908 68 274 3.0 9.0 0.00 0.03 0.03 59 1012.5
20260905032851 68 239 3.0 9.0 0.00 0.03 0.03 59 1012.5
20260905032752 68 239 3.0 9.0 0.00 0.03 0.03 59 1012.5
20260905032653 68 245 3.0 9.0 0.00 0.03 0.03 59 1012.5
20260905032547 68 235 3.0 9.0 0.00 0.03 0.03 59 1012.4
20260905032444 69 239 2.0 9.0 0.00 0.03 0.03 59 1012.5
20260905032403 69 268 2.0 8.0 0.00 0.03 0.03 59 1012.5
20260905032342 69 238 2.0 8.0 0.00 0.03 0.03 59 1012.5
20260905032242 69 232 2.0 6.0 0.00 0.03 0.03 59 1012.4
20260905032142 69 229 2.0 6.0 0.00 0.03 0.03 59 1012.4
20260905032041 69 287 2.0 6.0 0.00 0.03 0.03 59 1012.4
20260905031939 69 231 2.0 7.0 0.00 0.03 0.03 59 1012.4
20260905031857 69 221 2.0 7.0 0.00 0.03 0.03 59 1012.4
20260905031839 69 283 2.0 7.0 0.00 0.03 0.03 58 1012.4
20260905031740 69 203 2.0 7.0 0.00 0.03 0.03 58 1012.4
20260905031637 69 269 2.0 7.0 0.00 0.03 0.03 58 1012.4
20260905031536 69 271 2.0 7.0 0.00 0.03 0.03 58 1012.3
20260905031429 69 238 2.0 7.0 0.00 0.03 0.03 58 1012.3
20260905031350 69 194 2.0 7.0 0.00 0.03 0.03 58 1012.3
20260905031329 69 201 2.0 7.0 0.00 0.03 0.03 58 1012.3
20260905031231 69 281 2.0 9.0 0.00 0.03 0.03 58 1012.3
20260905031130 69 236 2.0 9.0 0.00 0.03 0.03 58 1012.3
20260905031029 69 257 2.0 9.0 0.00 0.03 0.03 58 1012.3
20260905030924 69 238 2.0 9.0 0.00 0.03 0.03 58 1012.3
20260905030845 69 214 2.0 9.0 0.00 0.03 0.03 58 1012.3
20260905030823 69 214 2.0 9.0 0.00 0.03 0.03 57 1012.3
20260905030724 69 239 2.0 9.0 0.00 0.03 0.03 57 1012.3
20260905030623 70 239 2.0 9.0 0.00 0.03 0.03 57 1012.3
20260905030524 70 217 2.0 9.0 0.00 0.03 0.03 57 1012.3
20260905030419 70 238 2.0 9.0 0.00 0.03 0.03 57 1012.3
20260905030318 70 287 3.0 9.0 0.00 0.03 0.03 57 1012.3
20260905030219 70 288 3.0 9.0 0.00 0.03 0.03 56 1012.3
20260905030118 70 246 3.0 9.0 0.00 0.03 0.03 56 1012.3
20260905030054 70 232 3.0 9.0 0.00 0.03 0.03 56 1012.3
20260905030017 70 277 3.0 9.0 0.00 0.03 0.03 56 1012.3
20260905025943 70 233 3.0 9.0 0.00 0.03 0.03 56 1012.3
20260905025812 70 245 3.0 9.0 0.00 0.03 0.03 56 1012.3
20260905025713 70 235 3.0 9.0 0.00 0.03 0.03 56 1012.2
20260905025611 70 273 3.0 9.0 0.00 0.03 0.03 56 1012.3
20260905025511 70 256 3.0 9.0 0.00 0.03 0.03 56 1012.2
20260905025407 70 289 2.0 9.0 0.00 0.03 0.03 55 1012.2
20260905025327 70 255 2.0 8.0 0.00 0.03 0.03 55 1012.2
20260905025308 70 270 2.0 8.0 0.00 0.03 0.03 55 1012.2
20260905025209 71 278 2.0 7.0 0.00 0.03 0.03 55 1012.2
20260905025108 71 229 2.0 7.0 0.00 0.03 0.03 55 1012.2
20260905025038 71 225 2.0 10.0 0.00 0.03 0.03 55 1012.1
20260905025006 71 219 3.0 8.0 0.00 0.03 0.03 55 1012.2
20260905024930 71 273 2.0 10.0 0.00 0.03 0.03 55 1012.1
20260905024800 71 225 3.0 10.0 0.00 0.03 0.03 55 1012.1
20260905024700 71 210 3.0 10.0 0.00 0.03 0.03 54 1012.1
20260905024600 71 277 3.0 10.0 0.00 0.03 0.03 54 1012.1
20260905024500 71 284 3.0 10.0 0.00 0.03 0.03 54 1012.1
20260905024400 71 229 3.0 10.0 0.00 0.03 0.03 54 1012.1
20260905024314 71 270 2.0 10.0 0.00 0.03 0.03 54 1012.1
20260905024257 71 263 2.0 10.0 0.00 0.03 0.03 54 1012.1
20260905024159 71 263 3.0 10.0 0.00 0.03 0.03 54 1012.1
20260905024055 71 248 3.0 10.0 0.00 0.03 0.03 54 1012.0
20260905023954 71 250 2.0 10.0 0.00 0.03 0.03 53 1012.0
20260905023849 71 278 2.0 10.0 0.00 0.03 0.03 53 1012.0
20260905023808 71 246 2.0 10.0 0.00 0.03 0.03 53 1012.0
20260905023748 72 248 2.0 10.0 0.00 0.03 0.03 53 1012.0
20260905023653 72 271 2.0 10.0 0.00 0.03 0.03 53 1012.1
20260905023548 72 212 3.0 10.0 0.00 0.03 0.03 53 1012.0
20260905023447 72 257 3.0 10.0 0.00 0.03 0.03 52 1012.1
20260905023341 72 271 3.0 10.0 0.00 0.03 0.03 52 1012.1
20260905023303 72 235 3.0 10.0 0.00 0.03 0.03 52 1012.1
20260905023242 72 233 3.0 10.0 0.00 0.03 0.03 52 1012.1
20260905023141 72 239 3.0 12.0 0.00 0.03 0.03 52 1012.1
20260905023042 72 200 4.0 12.0 0.00 0.03 0.03 52 1012.1
20260905022941 72 264 4.0 12.0 0.00 0.03 0.03 52 1012.0
20260905022838 73 302 4.0 12.0 0.00 0.03 0.03 52 1012.0
20260905022758 73 223 4.0 12.0 0.00 0.03 0.03 52 1012.1
20260905022737 73 222 4.0 12.0 0.00 0.03 0.03 52 1012.1
20260905022638 73 250 4.0 12.0 0.00 0.03 0.03 52 1012.1
20260905022538 73 235 4.0 12.0 0.00 0.03 0.03 52 1012.1
20260905022517 73 238 3.0 12.0 0.00 0.03 0.03 51 1012.0
20260905022436 73 221 4.0 12.0 0.00 0.03 0.03 51 1012.1
20260905022401 73 226 4.0 12.0 0.00 0.03 0.03 51 1012.1
20260905022230 73 249 3.0 12.0 0.00 0.03 0.03 50 1012.0
20260905022130 73 235 3.0 12.0 0.00 0.03 0.03 49 1012.0
20260905022030 73 240 2.0 12.0 0.00 0.03 0.03 49 1012.1
20260905021929 74 229 2.0 12.0 0.00 0.03 0.03 48 1012.0
20260905021826 74 136 2.0 6.0 0.00 0.03 0.03 46 1012.0
20260905021744 74 157 2.0 5.0 0.00 0.03 0.03 45 1012.0
20260905021726 74 228 2.0 5.0 0.00 0.03 0.03 45 1012.0
20260905021625 74 235 2.0 5.0 0.00 0.03 0.03 45 1012.0
20260905021526 74 170 2.0 5.0 0.00 0.03 0.03 44 1012.0
20260905021500 74 243 2.0 4.0 0.00 0.03 0.03 44 1011.9
20260905021423 74 226 2.0 5.0 0.00 0.03 0.03 44 1011.9
20260905021349 74 198 2.0 5.0 0.00 0.03 0.03 44 1011.9
20260905021228 74 193 2.0 4.0 0.00 0.03 0.03 44 1011.9
20260905021219 74 229 2.0 4.0 0.00 0.03 0.03 44 1011.9
20260905021119 74 229 2.0 4.0 0.00 0.03 0.03 44 1012.0
20260905021109 74 229 2.0 4.0 0.00 0.03 0.03 44 1012.0
20260905020923 74 229 2.0 4.0 0.00 0.03 0.03 44 1011.9
20260905020843 74 141 2.0 4.0 0.00 0.03 0.03 44 1011.9
20260905020712 74 203 2.0 4.0 0.00 0.03 0.03 44 1011.9
20260905020612 74 207 2.0 5.0 0.00 0.03 0.03 44 1011.9
20260905020512 74 233 2.0 5.0 0.00 0.03 0.03 43 1011.9
20260905020411 74 229 2.0 7.0 0.00 0.03 0.03 44 1011.9
20260905020306 74 229 2.0 7.0 0.00 0.03 0.03 44 1012.0
20260905020240 74 200 2.0 7.0 0.00 0.03 0.03 44 1012.0
20260905020206 74 200 2.0 7.0 0.00 0.03 0.03 43 1011.9
20260905020106 74 200 2.0 7.0 0.00 0.03 0.03 43 1012.0
20260905020006 74 188 2.0 7.0 0.00 0.03 0.03 43 1012.0
20260905015906 74 228 2.0 7.0 0.00 0.03 0.03 43 1012.0
20260905015800 74 235 2.0 7.0 0.00 0.03 0.03 43 1012.0
20260905015720 74 215 2.0 7.0 0.00 0.03 0.03 43 1012.0
20260905015701 74 246 2.0 7.0 0.00 0.03 0.03 43 1012.0
20260905015559 74 226 1.0 7.0 0.00 0.03 0.03 43 1012.1
20260905015459 74 211 1.0 7.0 0.00 0.03 0.03 43 1012.0
20260905015400 74 226 1.0 4.0 0.00 0.03 0.03 43 1012.0
20260905015300 74 246 1.0 4.0 0.00 0.03 0.03 43 1012.0
20260905015214 74 246 1.0 4.0 0.00 0.03 0.03 43 1012.0
20260905015158 74 246 1.0 4.0 0.00 0.03 0.03 43 1012.0
20260905015055 74 246 2.0 4.0 0.00 0.03 0.03 43 1012.1
20260905014956 74 246 2.0 6.0 0.00 0.03 0.03 43 1012.0
20260905014853 74 231 2.0 6.0 0.00 0.03 0.03 43 1012.0
20260905014750 74 231 2.0 6.0 0.00 0.03 0.03 43 1012.1
20260905014708 74 231 2.0 6.0 0.00 0.03 0.03 43 1012.1
20260905014651 74 230 3.0 6.0 0.00 0.03 0.03 43 1012.1
20260905014548 75 240 3.0 8.0 0.00 0.03 0.03 43 1012.0
20260905014447 75 267 3.0 8.0 0.00 0.03 0.03 43 1012.0
20260905014347 75 231 3.0 8.0 0.00 0.03 0.03 42 1012.0
20260905014241 75 207 3.0 8.0 0.00 0.03 0.03 42 1012.0
20260905014203 75 214 3.0 8.0 0.00 0.03 0.03 42 1012.0
20260905014142 75 215 3.0 8.0 0.00 0.03 0.03 42 1012.0
20260905014042 75 240 3.0 8.0 0.00 0.03 0.03 42 1012.0
20260905013942 75 262 3.0 8.0 0.00 0.03 0.03 42 1012.0
20260905013841 75 200 3.0 8.0 0.00 0.03 0.03 41 1012.0
20260905013737 75 198 3.0 8.0 0.00 0.03 0.03 41 1012.0
20260905013701 75 242 3.0 8.0 0.00 0.03 0.03 41 1012.0
20260905013636 75 201 3.0 8.0 0.00 0.03 0.03 41 1012.0
20260905013536 75 188 2.0 7.0 0.00 0.03 0.03 42 1012.0
20260905013435 75 143 3.0 7.0 0.00 0.03 0.03 42 1012.0
20260905013335 75 121 3.0 7.0 0.00 0.03 0.03 41 1012.0
20260905013232 75 217 3.0 7.0 0.00 0.03 0.03 41 1012.0
20260905013151 75 226 3.0 7.0 0.00 0.03 0.03 41 1012.0
20260905013130 75 212 3.0 7.0 0.00 0.03 0.03 41 1012.0
20260905013030 75 238 3.0 7.0 0.00 0.03 0.03 41 1012.0
20260905012929 75 160 3.0 7.0 0.00 0.03 0.03 41 1011.9
20260905012830 75 210 3.0 7.0 0.00 0.03 0.03 41 1012.0
20260905012724 75 138 3.0 7.0 0.00 0.03 0.03 41 1012.0
20260905012645 75 201 3.0 7.0 0.00 0.03 0.03 41 1011.9
20260905012624 75 226 3.0 7.0 0.00 0.03 0.03 41 1011.9
20260905012523 75 186 3.0 8.0 0.00 0.03 0.03 41 1011.9
20260905012423 75 158 3.0 8.0 0.00 0.03 0.03 41 1012.0
20260905012323 75 177 3.0 8.0 0.00 0.03 0.03 41 1011.9
20260905012218 75 253 3.0 8.0 0.00 0.03 0.03 40 1011.9
20260905012138 75 212 3.0 8.0 0.00 0.03 0.03 40 1012.0
20260905012118 75 203 3.0 8.0 0.00 0.03 0.03 40 1012.0
20260905012017 75 231 3.0 8.0 0.00 0.03 0.03 40 1011.9
20260905011918 75 231 3.0 8.0 0.00 0.03 0.03 40 1011.9
20260905011817 75 217 3.0 8.0 0.00 0.03 0.03 40 1011.9
20260905011712 75 273 4.0 8.0 0.00 0.03 0.03 39 1011.9
20260905011636 75 233 4.0 8.0 0.00 0.03 0.03 39 1011.9
20260905011612 75 240 3.0 9.0 0.00 0.03 0.03 39 1011.9
20260905011512 75 212 3.0 9.0 0.00 0.03 0.03 39 1011.8
20260905011412 75 252 3.0 9.0 0.00 0.03 0.03 39 1011.9
20260905011311 75 246 3.0 9.0 0.00 0.03 0.03 39 1011.8
20260905011206 75 223 3.0 9.0 0.00 0.03 0.03 39 1011.8
20260905011138 75 204 3.0 9.0 0.00 0.03 0.03 39 1011.8
20260905011106 75 138 3.0 9.0 0.00 0.03 0.03 39 1011.8
20260905011005 75 154 2.0 9.0 0.00 0.03 0.03 39 1011.9
20260905010906 75 219 2.0 9.0 0.00 0.03 0.03 39 1011.9
20260905010805 75 243 2.0 9.0 0.00 0.03 0.03 38 1011.9
20260905010659 75 253 2.0 9.0 0.00 0.03 0.03 39 1011.9
20260905010634 75 229 2.0 9.0 0.00 0.03 0.03 39 1011.9
20260905010559 75 236 2.0 6.0 0.00 0.03 0.03 39 1011.9
20260905010459 75 170 3.0 6.0 0.00 0.03 0.03 39 1011.9
20260905010400 75 210 3.0 8.0 0.00 0.03 0.03 38 1011.9
20260905010259 75 167 3.0 8.0 0.00 0.03 0.03 39 1011.9
20260905010156 75 211 3.0 8.0 0.00 0.03 0.03 39 1011.9
20260905010135 75 228 3.0 8.0 0.00 0.03 0.03 39 1011.9
20260905010053 75 197 3.0 8.0 0.00 0.03 0.03 39 1011.9
20260905005954 75 197 3.0 8.0 0.00 0.03 0.03 38 1011.9
20260905005854 75 212 3.0 8.0 0.00 0.03 0.03 38 1011.9
20260905005753 75 225 3.0 8.0 0.00 0.03 0.03 38 1011.9
20260905005650 75 262 3.0 8.0 0.00 0.03 0.03 38 1011.9
20260905005634 75 238 3.0 8.0 0.00 0.03 0.03 38 1011.9
20260905005548 75 250 3.0 8.0 0.00 0.03 0.03 37 1011.9
20260905005448 75 226 3.0 8.0 0.00 0.03 0.03 37 1011.8
20260905005348 76 226 2.0 7.0 0.00 0.03 0.03 37 1011.8
20260905005247 76 240 2.0 7.0 0.00 0.03 0.03 37 1011.9
20260905005149 76 239 2.0 7.0 0.00 0.03 0.03 38 1011.8
20260905005134 76 230 2.0 7.0 0.00 0.03 0.03 38 1011.8
20260905005045 76 168 2.0 7.0 0.00 0.03 0.03 37 1011.8
20260905004945 76 168 2.0 7.0 0.00 0.03 0.03 36 1011.8
20260905004844 76 267 3.0 7.0 0.00 0.03 0.03 37 1011.9
20260905004741 76 260 3.0 8.0 0.00 0.03 0.03 37 1011.9
20260905004636 76 256 3.0 8.0 0.00 0.03 0.03 37 1011.9
20260905004535 76 243 3.0 8.0 0.00 0.03 0.03 36 1011.8
20260905004436 76 240 2.0 8.0 0.00 0.03 0.03 36 1011.8
20260905004356 76 232 3.0 8.0 0.00 0.03 0.03 36 1011.8
20260905004335 76 208 3.0 8.0 0.00 0.03 0.03 36 1011.9
20260905004246 76 231 3.0 8.0 0.00 0.03 0.03 36 1011.9
20260905004130 76 246 3.0 8.0 0.00 0.03 0.03 36 1011.8
20260905004029 76 229 3.0 8.0 0.00 0.03 0.03 36 1011.8
20260905003929 76 250 3.0 8.0 0.00 0.03 0.03 36 1011.8
20260905003830 76 249 2.0 6.0 0.00 0.03 0.03 35 1011.8
20260905003634 76 233 2.0 5.0 0.00 0.03 0.03 36 1011.8
20260905003626 76 193 2.0 5.0 0.00 0.03 0.03 36 1011.8
20260905003524 76 235 2.0 5.0 0.00 0.03 0.03 36 1011.8
20260905003424 76 239 1.0 5.0 0.00 0.03 0.03 35 1011.8
20260905003323 76 233 1.0 5.0 0.00 0.03 0.03 35 1011.8
20260905003224 76 243 1.0 5.0 0.00 0.03 0.03 34 1011.8
20260905003135 76 224 1.0 5.0 0.00 0.03 0.03 34 1011.9
20260905003125 76 224 1.0 4.0 0.00 0.03 0.03 35 1011.8
20260905003118 76 163 1.0 5.0 0.00 0.03 0.03 35 1011.8
20260905003013 76 225 1.0 5.0 0.00 0.03 0.03 36 1011.8
20260905002817 76 224 1.0 4.0 0.00 0.03 0.03 35 1011.8
20260905002746 76 224 1.0 4.0 0.00 0.03 0.03 36 1011.8
20260905002612 76 224 1.0 4.0 0.00 0.03 0.03 35 1011.8
20260905002512 76 232 1.0 4.0 0.00 0.03 0.03 35 1011.8
20260905002411 76 138 2.0 4.0 0.00 0.03 0.03 35 1011.9
20260905002312 76 155 2.0 8.0 0.00 0.03 0.03 35 1011.8
20260905002211 76 211 2.0 8.0 0.00 0.03 0.03 34 1011.9
20260905002133 76 211 2.0 8.0 0.00 0.03 0.03 34 1011.9
20260905002106 76 218 2.0 8.0 0.00 0.03 0.03 35 1011.9
20260905002006 76 149 3.0 8.0 0.00 0.03 0.03 34 1011.9
20260905001909 76 165 3.0 8.0 0.00 0.03 0.03 35 1011.9
20260905001806 76 231 3.0 8.0 0.00 0.03 0.03 34 1011.9
20260905001706 76 233 3.0 8.0 0.00 0.03 0.03 34 1011.9
20260905001633 76 233 3.0 8.0 0.00 0.03 0.03 34 1011.9
20260905001559 76 233 3.0 8.0 0.00 0.03 0.03 33 1011.9
20260905001459 76 270 3.0 8.0 0.00 0.03 0.03 33 1012.0
20260905001359 76 270 3.0 8.0 0.00 0.03 0.03 33 1012.0
20260905001300 76 255 3.0 8.0 0.00 0.03 0.03 33 1012.0
20260905001200 76 253 3.0 8.0 0.00 0.03 0.03 33 1012.0
20260905001133 76 255 3.0 8.0 0.00 0.03 0.03 33 1012.0
20260905001058 76 233 2.0 8.0 0.00 0.03 0.03 33 1012.0
20260905000958 76 188 2.0 8.0 0.00 0.03 0.03 33 1012.0
20260905000906 76 195 3.0 9.0 0.00 0.03 0.03 33 1012.0
20260905000857 76 240 3.0 8.0 0.00 0.03 0.03 34 1012.0
20260905000756 76 191 3.0 8.0 0.00 0.03 0.03 33 1012.0
20260905000745 76 188 3.0 9.0 0.00 0.03 0.03 33 1012.0
20260905000556 76 241 3.0 9.0 0.00 0.03 0.03 33 1012.1
20260905000455 76 238 3.0 10.0 0.00 0.03 0.03 35 1012.1
20260905000355 76 228 4.0 10.0 0.00 0.03 0.03 34 1012.0
20260905000255 76 132 4.0 10.0 0.00 0.03 0.03 34 1012.0
20260905000155 76 253 4.0 10.0 0.00 0.03 0.03 35 1012.1
20260905000133 76 253 4.0 10.0 0.00 0.03 0.03 34 1012.1
20260905000053 76 253 4.0 10.0 0.00 0.03 0.03 34 1012.1
20260904235954 76 221 4.0 10.0 0.00 0.03 0.03 33 1012.0
20260904235858 77 216 4.0 10.0 0.00 0.03 0.03 33 1012.0
20260904235853 77 218 4.0 10.0 0.00 0.03 0.03 33 1012.0
20260904235754 77 208 4.0 10.0 0.00 0.03 0.03 33 1012.0
20260904235743 77 229 4.0 10.0 0.00 0.03 0.03 33 1012.0
20260904235553 77 241 4.0 10.0 0.00 0.03 0.03 34 1012.0
20260904235452 77 248 4.0 10.0 0.00 0.03 0.03 35 1012.0
20260904235352 77 132 4.0 11.0 0.00 0.03 0.03 34 1012.0
20260904235251 77 240 5.0 11.0 0.00 0.03 0.03 36 1012.1
20260904235130 77 242 5.0 11.0 0.00 0.03 0.03 37 1012.1
20260904235051 77 212 5.0 11.0 0.00 0.03 0.03 36 1012.1
20260904234951 77 238 5.0 11.0 0.00 0.03 0.03 35 1012.0
20260904234846 77 241 5.0 11.0 0.00 0.03 0.03 33 1012.1
20260904234746 77 176 5.0 11.0 0.00 0.03 0.03 33 1012.1
20260904234646 77 225 4.0 11.0 0.00 0.03 0.03 33 1012.0
20260904234624 78 224 4.0 11.0 0.00 0.03 0.03 33 1012.0
20260904234546 78 205 4.0 11.0 0.00 0.03 0.03 33 1012.1
20260904234446 78 271 3.0 11.0 0.00 0.03 0.03 33 1012.1
20260904234343 78 233 2.0 8.0 0.00 0.03 0.03 34 1012.1
20260904234244 78 204 2.0 8.0 0.00 0.03 0.03 36 1012.1
20260904234145 78 174 2.0 8.0 0.00 0.03 0.03 36 1012.1
20260904234118 78 235 2.0 8.0 0.00 0.03 0.03 36 1012.1
20260904234042 78 229 3.0 9.0 0.00 0.03 0.03 37 1012.1
20260904233939 78 232 3.0 10.0 0.00 0.03 0.03 37 1012.1
20260904233835 78 228 2.0 10.0 0.00 0.03 0.03 37 1012.1
20260904233734 78 232 2.0 10.0 0.00 0.03 0.03 39 1012.2
20260904233612 78 211 2.0 10.0 0.00 0.03 0.03 40 1012.2
20260904233533 78 270 3.0 10.0 0.00 0.03 0.03 40 1012.2
20260904233434 78 274 3.0 10.0 0.00 0.03 0.03 41 1012.2
20260904233327 78 139 3.0 10.0 0.00 0.03 0.03 41 1012.2
20260904233228 78 219 3.0 10.0 0.00 0.03 0.03 40 1012.2
20260904233128 78 239 3.0 10.0 0.00 0.03 0.03 40 1012.2
20260904233107 78 217 2.0 10.0 0.00 0.03 0.03 40 1012.2
20260904233028 78 253 2.0 6.0 0.00 0.03 0.03 41 1012.2